Wetterdaten: Freitag, 23.06.2023
Datum Zeit Temp. 2m Temp +5 cm Feuchte A. Luftdruck Regen Wind Richtung Richtung Sonnenschein UV Solar Taupunkt Windchill Windben
23.06.2023 00:00 15,6 C 14,4 C 90 % 1016,8 hPa 0,2 l/m 8,0 km/h (2 Bft) W-SW 247 0 min 0,0 UV-I 0 W/m 14,0 C 14,7 C 33,8 km/h (5 Bft)
23.06.2023 00:01 15,6 C 14,4 C 90 % 1016,9 hPa 0,0 l/m 11,3 km/h (2 Bft) W-SW 247 0 min 0,0 UV-I 0 W/m 14,0 C 13,2 C 29,0 km/h (5 Bft)
23.06.2023 00:02 15,6 C 14,4 C 90 % 1016,7 hPa 0,0 l/m 11,3 km/h (2 Bft) W 270 0 min 0,0 UV-I 0 W/m 14,0 C 13,2 C 20,9 km/h (4 Bft)
23.06.2023 00:03 15,6 C 14,4 C 90 % 1016,8 hPa 0,0 l/m 11,3 km/h (2 Bft) W-NW 292 0 min 0,0 UV-I 0 W/m 14,0 C 13,2 C 25,7 km/h (4 Bft)
23.06.2023 00:04 15,6 C 14,4 C 90 % 1016,7 hPa 0,0 l/m 14,5 km/h (3 Bft) W-SW 247 0 min 0,0 UV-I 0 W/m 14,0 C 12,1 C 22,5 km/h (4 Bft)
23.06.2023 00:05 15,6 C 14,4 C 90 % 1016,8 hPa 0,0 l/m 12,9 km/h (3 Bft) W 270 0 min 0,0 UV-I 0 W/m 14,0 C 12,6 C 20,9 km/h (4 Bft)
23.06.2023 00:06 15,6 C 14,4 C 90 % 1016,8 hPa 0,0 l/m 8,0 km/h (2 Bft) W-SW 247 0 min 0,0 UV-I 0 W/m 14,0 C 14,7 C 14,5 km/h (3 Bft)
23.06.2023 00:07 15,6 C 14,4 C 90 % 1016,9 hPa 0,0 l/m 6,4 km/h (2 Bft) W-NW 292 0 min 0,0 UV-I 0 W/m 14,0 C 15,6 C 14,5 km/h (3 Bft)
23.06.2023 00:08 15,6 C 14,4 C 90 % 1016,9 hPa 0,0 l/m 4,8 km/h (1 Bft) SW 225 0 min 0,0 UV-I 0 W/m 14,0 C 15,6 C 6,4 km/h (2 Bft)
23.06.2023 00:09 15,6 C 14,4 C 90 % 1016,9 hPa 0,0 l/m 3,2 km/h (1 Bft) W-SW 247 0 min 0,0 UV-I 0 W/m 14,0 C 15,6 C 11,3 km/h (2 Bft)
23.06.2023 00:10 15,6 C 14,4 C 90 % 1016,8 hPa 0,0 l/m 9,7 km/h (2 Bft) SW 225 0 min 0,0 UV-I 0 W/m 14,0 C 13,9 C 22,5 km/h (4 Bft)
23.06.2023 00:11 15,6 C 14,4 C 90 % 1016,9 hPa 0,0 l/m 11,3 km/h (2 Bft) SW 225 0 min 0,0 UV-I 0 W/m 14,0 C 13,2 C 19,3 km/h (3 Bft)
23.06.2023 00:12 15,5 C 14,4 C 90 % 1016,9 hPa 0,0 l/m 12,9 km/h (3 Bft) S-SW 202 0 min 0,0 UV-I 0 W/m 13,9 C 12,5 C 32,2 km/h (5 Bft)
23.06.2023 00:13 15,5 C 14,4 C 90 % 1016,9 hPa 0,0 l/m 3,2 km/h (1 Bft) S-SW 202 0 min 0,0 UV-I 0 W/m 13,9 C 15,5 C 4,8 km/h (1 Bft)
23.06.2023 00:14 15,4 C 14,4 C 90 % 1016,9 hPa 0,0 l/m 6,4 km/h (2 Bft) W 270 0 min 0,0 UV-I 0 W/m 13,8 C 15,4 C 19,3 km/h (3 Bft)
23.06.2023 00:15 15,4 C 14,4 C 90 % 1016,9 hPa 0,0 l/m 6,4 km/h (2 Bft) W 270 0 min 0,0 UV-I 0 W/m 13,8 C 15,4 C 11,3 km/h (2 Bft)
23.06.2023 00:16 15,4 C 14,4 C 90 % 1016,9 hPa 0,0 l/m 4,8 km/h (1 Bft) W-SW 247 0 min 0,0 UV-I 0 W/m 13,8 C 15,4 C 12,9 km/h (3 Bft)
23.06.2023 00:17 15,4 C 14,4 C 90 % 1016,8 hPa 0,0 l/m 4,8 km/h (1 Bft) SW 225 0 min 0,0 UV-I 0 W/m 13,8 C 15,4 C 12,9 km/h (3 Bft)
23.06.2023 00:18 15,4 C 14,4 C 90 % 1016,8 hPa 0,0 l/m 11,3 km/h (2 Bft) W-NW 292 0 min 0,0 UV-I 0 W/m 13,8 C 13,0 C 19,3 km/h (3 Bft)
23.06.2023 00:19 15,4 C 14,4 C 90 % 1016,9 hPa 0,0 l/m 3,2 km/h (1 Bft) W 270 0 min 0,0 UV-I 0 W/m 13,8 C 15,4 C 6,4 km/h (2 Bft)
23.06.2023 00:20 15,4 C 14,4 C 90 % 1016,9 hPa 0,0 l/m 12,9 km/h (3 Bft) W-NW 292 0 min 0,0 UV-I 0 W/m 13,8 C 12,4 C 35,4 km/h (5 Bft)
23.06.2023 00:21 15,4 C 14,4 C 90 % 1016,9 hPa 0,0 l/m 8,0 km/h (2 Bft) W 270 0 min 0,0 UV-I 0 W/m 13,8 C 14,5 C 35,4 km/h (5 Bft)
23.06.2023 00:22 15,3 C 14,4 C 89 % 1016,9 hPa 0,0 l/m 16,1 km/h (3 Bft) W 270 0 min 0,0 UV-I 0 W/m 13,5 C 11,2 C 29,0 km/h (5 Bft)
23.06.2023 00:23 15,3 C 14,4 C 89 % 1016,8 hPa 0,0 l/m 14,5 km/h (3 Bft) W 270 0 min 0,0 UV-I 0 W/m 13,5 C 11,7 C 22,5 km/h (4 Bft)
23.06.2023 00:24 15,3 C 14,4 C 89 % 1017,0 hPa 0,0 l/m 9,7 km/h (2 Bft) SW 225 0 min 0,0 UV-I 0 W/m 13,5 C 13,6 C 24,1 km/h (4 Bft)
23.06.2023 00:25 15,3 C 14,4 C 89 % 1016,9 hPa 0,0 l/m 11,3 km/h (2 Bft) W 270 0 min 0,0 UV-I 0 W/m 13,5 C 12,9 C 19,3 km/h (3 Bft)
23.06.2023 00:26 15,3 C 14,4 C 89 % 1017,0 hPa 0,0 l/m 8,0 km/h (2 Bft) W 270 0 min 0,0 UV-I 0 W/m 13,5 C 14,4 C 12,9 km/h (3 Bft)
23.06.2023 00:27 15,3 C 13,9 C 89 % 1016,9 hPa 0,0 l/m 11,3 km/h (2 Bft) W-SW 247 0 min 0,0 UV-I 0 W/m 13,5 C 12,9 C 16,1 km/h (3 Bft)
23.06.2023 00:28 15,2 C 13,9 C 89 % 1016,9 hPa 0,0 l/m 11,3 km/h (2 Bft) W-SW 247 0 min 0,0 UV-I 0 W/m 13,4 C 12,8 C 17,7 km/h (3 Bft)
23.06.2023 00:29 15,2 C 13,9 C 89 % 1017,0 hPa 0,0 l/m 11,3 km/h (2 Bft) SW 225 0 min 0,0 UV-I 0 W/m 13,4 C 12,8 C 20,9 km/h (4 Bft)
23.06.2023 00:30 15,2 C 13,9 C 89 % 1017,0 hPa 0,0 l/m 16,1 km/h (3 Bft) W 270 0 min 0,0 UV-I 0 W/m 13,4 C 11,1 C 20,9 km/h (4 Bft)
23.06.2023 00:31 15,2 C 13,9 C 89 % 1017,0 hPa 0,0 l/m 16,1 km/h (3 Bft) W 270 0 min 0,0 UV-I 0 W/m 13,4 C 11,1 C 24,1 km/h (4 Bft)
23.06.2023 00:32 15,2 C 13,9 C 89 % 1016,9 hPa 0,0 l/m 14,5 km/h (3 Bft) W-NW 292 0 min 0,0 UV-I 0 W/m 13,4 C 11,6 C 20,9 km/h (4 Bft)
23.06.2023 00:33 15,1 C 13,9 C 89 % 1016,9 hPa 0,0 l/m 12,9 km/h (3 Bft) W-SW 247 0 min 0,0 UV-I 0 W/m 13,3 C 12,0 C 19,3 km/h (3 Bft)
23.06.2023 00:34 15,2 C 13,9 C 89 % 1016,9 hPa 0,0 l/m 17,7 km/h (3 Bft) W-SW 247 0 min 0,0 UV-I 0 W/m 13,4 C 10,6 C 25,7 km/h (4 Bft)
23.06.2023 00:35 15,1 C 13,9 C 89 % 1017,1 hPa 0,0 l/m 14,5 km/h (3 Bft) W 270 0 min 0,0 UV-I 0 W/m 13,3 C 11,5 C 22,5 km/h (4 Bft)
23.06.2023 00:36 15,1 C 13,9 C 89 % 1017,0 hPa 0,0 l/m 14,5 km/h (3 Bft) W-SW 247 0 min 0,0 UV-I 0 W/m 13,3 C 11,5 C 25,7 km/h (4 Bft)
23.06.2023 00:37 15,1 C 13,9 C 89 % 1017,0 hPa 0,0 l/m 14,5 km/h (3 Bft) W 270 0 min 0,0 UV-I 0 W/m 13,3 C 11,5 C 29,0 km/h (5 Bft)
23.06.2023 00:38 15,1 C 13,9 C 89 % 1017,0 hPa 0,0 l/m 17,7 km/h (3 Bft) W 270 0 min 0,0 UV-I 0 W/m 13,3 C 10,5 C 25,7 km/h (4 Bft)
23.06.2023 00:39 15,1 C 13,9 C 89 % 1017,0 hPa 0,0 l/m 11,3 km/h (2 Bft) SW 225 0 min 0,0 UV-I 0 W/m 13,3 C 12,7 C 22,5 km/h (4 Bft)
23.06.2023 00:40 15,1 C 13,9 C 89 % 1017,0 hPa 0,0 l/m 11,3 km/h (2 Bft) W-SW 247 0 min 0,0 UV-I 0 W/m 13,3 C 12,7 C 17,7 km/h (3 Bft)
23.06.2023 00:41 15,1 C 13,9 C 89 % 1017,0 hPa 0,0 l/m 12,9 km/h (3 Bft) W 270 0 min 0,0 UV-I 0 W/m 13,3 C 12,0 C 19,3 km/h (3 Bft)
23.06.2023 00:42 15,1 C 13,9 C 89 % 1017,2 hPa 0,0 l/m 9,7 km/h (2 Bft) W-SW 247 0 min 0,0 UV-I 0 W/m 13,3 C 13,4 C 16,1 km/h (3 Bft)
23.06.2023 00:43 15,1 C 13,9 C 89 % 1017,2 hPa 0,0 l/m 11,3 km/h (2 Bft) W-SW 247 0 min 0,0 UV-I 0 W/m 13,3 C 12,7 C 16,1 km/h (3 Bft)
23.06.2023 00:44 15,1 C 13,9 C 89 % 1017,2 hPa 0,0 l/m 16,1 km/h (3 Bft) W 270 0 min 0,0 UV-I 0 W/m 13,3 C 11,0 C 25,7 km/h (4 Bft)
23.06.2023 00:45 15,0 C 13,9 C 89 % 1017,2 hPa 0,0 l/m 14,5 km/h (3 Bft) W 270 0 min 0,0 UV-I 0 W/m 13,2 C 11,4 C 20,9 km/h (4 Bft)
23.06.2023 00:46 15,0 C 13,9 C 89 % 1017,3 hPa 0,0 l/m 14,5 km/h (3 Bft) W-SW 247 0 min 0,0 UV-I 0 W/m 13,2 C 11,4 C 20,9 km/h (4 Bft)
23.06.2023 00:47 15,0 C 13,9 C 89 % 1017,2 hPa 0,0 l/m 12,9 km/h (3 Bft) W 270 0 min 0,0 UV-I 0 W/m 13,2 C 11,9 C 19,3 km/h (3 Bft)
23.06.2023 00:48 15,0 C 13,9 C 89 % 1017,3 hPa 0,0 l/m 8,0 km/h (2 Bft) W-SW 247 0 min 0,0 UV-I 0 W/m 13,2 C 14,1 C 14,5 km/h (3 Bft)
23.06.2023 00:49 15,0 C 13,9 C 90 % 1017,3 hPa 0,0 l/m 11,3 km/h (2 Bft) W 270 0 min 0,0 UV-I 0 W/m 13,4 C 12,6 C 16,1 km/h (3 Bft)
23.06.2023 00:50 15,0 C 13,9 C 89 % 1017,3 hPa 0,0 l/m 14,5 km/h (3 Bft) W-SW 247 0 min 0,0 UV-I 0 W/m 13,2 C 11,4 C 17,7 km/h (3 Bft)
23.06.2023 00:51 15,0 C 13,9 C 90 % 1017,4 hPa 0,0 l/m 14,5 km/h (3 Bft) W-SW 247 0 min 0,0 UV-I 0 W/m 13,4 C 11,4 C 20,9 km/h (4 Bft)
23.06.2023 00:52 15,0 C 13,9 C 90 % 1017,3 hPa 0,0 l/m 8,0 km/h (2 Bft) W-SW 247 0 min 0,0 UV-I 0 W/m 13,4 C 14,1 C 12,9 km/h (3 Bft)
23.06.2023 00:53 14,9 C 13,9 C 90 % 1017,3 hPa 0,0 l/m 14,5 km/h (3 Bft) W 270 0 min 0,0 UV-I 0 W/m 13,3 C 11,2 C 19,3 km/h (3 Bft)
23.06.2023 00:54 15,0 C 13,9 C 90 % 1017,5 hPa 0,0 l/m 14,5 km/h (3 Bft) W-SW 247 0 min 0,0 UV-I 0 W/m 13,4 C 11,4 C 20,9 km/h (4 Bft)
23.06.2023 00:55 15,0 C 13,9 C 90 % 1017,4 hPa 0,0 l/m 12,9 km/h (3 Bft) W 270 0 min 0,0 UV-I 0 W/m 13,4 C 11,9 C 19,3 km/h (3 Bft)
23.06.2023 00:56 15,0 C 13,9 C 90 % 1017,6 hPa 0,0 l/m 11,3 km/h (2 Bft) W-SW 247 0 min 0,0 UV-I 0 W/m 13,4 C 12,6 C 17,7 km/h (3 Bft)
23.06.2023 00:57 15,0 C 13,9 C 90 % 1017,6 hPa 0,0 l/m 6,4 km/h (2 Bft) W-SW 247 0 min 0,0 UV-I 0 W/m 13,4 C 15,0 C 14,5 km/h (3 Bft)
23.06.2023 00:58 15,0 C 13,9 C 90 % 1017,5 hPa 0,0 l/m 14,5 km/h (3 Bft) W 270 0 min 0,0 UV-I 0 W/m 13,4 C 11,4 C 25,7 km/h (4 Bft)
23.06.2023 00:59 15,0 C 13,9 C 90 % 1017,6 hPa 0,0 l/m 16,1 km/h (3 Bft) W 270 0 min 0,0 UV-I 0 W/m 13,4 C 10,8 C 17,7 km/h (3 Bft)
23.06.2023 01:00 15,0 C 13,9 C 90 % 1017,6 hPa 0,0 l/m 12,9 km/h (3 Bft) W 270 0 min 0,0 UV-I 0 W/m 13,4 C 11,9 C 25,7 km/h (4 Bft)
23.06.2023 01:01 15,0 C 13,9 C 90 % 1017,7 hPa 0,0 l/m 9,7 km/h (2 Bft) W-SW 247 0 min 0,0 UV-I 0 W/m 13,4 C 13,3 C 14,5 km/h (3 Bft)
23.06.2023 01:02 15,1 C 13,9 C 90 % 1017,6 hPa 0,0 l/m 14,5 km/h (3 Bft) W-SW 247 0 min 0,0 UV-I 0 W/m 13,5 C 11,5 C 22,5 km/h (4 Bft)
23.06.2023 01:03 15,1 C 13,9 C 90 % 1017,7 hPa 0,0 l/m 14,5 km/h (3 Bft) W 270 0 min 0,0 UV-I 0 W/m 13,5 C 11,5 C 27,4 km/h (4 Bft)
23.06.2023 01:04 15,1 C 13,9 C 90 % 1017,7 hPa 0,0 l/m 19,3 km/h (3 Bft) W 270 0 min 0,0 UV-I 0 W/m 13,5 C 10,1 C 29,0 km/h (5 Bft)
23.06.2023 01:05 15,1 C 14,4 C 90 % 1017,8 hPa 0,0 l/m 8,0 km/h (2 Bft) W 270 0 min 0,0 UV-I 0 W/m 13,5 C 14,2 C 14,5 km/h (3 Bft)
23.06.2023 01:06 15,1 C 14,4 C 90 % 1017,8 hPa 0,0 l/m 9,7 km/h (2 Bft) W-SW 247 0 min 0,0 UV-I 0 W/m 13,5 C 13,4 C 16,1 km/h (3 Bft)
23.06.2023 01:07 15,1 C 14,4 C 90 % 1017,9 hPa 0,0 l/m 4,8 km/h (1 Bft) W 270 0 min 0,0 UV-I 0 W/m 13,5 C 15,1 C 11,3 km/h (2 Bft)
23.06.2023 01:08 15,1 C 14,4 C 90 % 1018,0 hPa 0,0 l/m 11,3 km/h (2 Bft) W 270 0 min 0,0 UV-I 0 W/m 13,5 C 12,7 C 16,1 km/h (3 Bft)
23.06.2023 01:09 15,2 C 14,4 C 90 % 1018,0 hPa 0,0 l/m 9,7 km/h (2 Bft) W 270 0 min 0,0 UV-I 0 W/m 13,6 C 13,5 C 14,5 km/h (3 Bft)
23.06.2023 01:10 15,2 C 14,4 C 89 % 1018,2 hPa 0,0 l/m 8,0 km/h (2 Bft) W-SW 247 0 min 0,0 UV-I 0 W/m 13,4 C 14,3 C 12,9 km/h (3 Bft)
23.06.2023 01:11 15,2 C 14,4 C 89 % 1018,2 hPa 0,0 l/m 11,3 km/h (2 Bft) W-SW 247 0 min 0,0 UV-I 0 W/m 13,4 C 12,8 C 17,7 km/h (3 Bft)
23.06.2023 01:12 15,2 C 14,4 C 89 % 1018,2 hPa 0,0 l/m 6,4 km/h (2 Bft) SW 225 0 min 0,0 UV-I 0 W/m 13,4 C 15,2 C 12,9 km/h (3 Bft)
23.06.2023 01:13 15,2 C 14,4 C 89 % 1018,4 hPa 0,0 l/m 8,0 km/h (2 Bft) W-SW 247 0 min 0,0 UV-I 0 W/m 13,4 C 14,3 C 11,3 km/h (2 Bft)
23.06.2023 01:14 15,2 C 14,4 C 89 % 1018,3 hPa 0,0 l/m 9,7 km/h (2 Bft) W 270 0 min 0,0 UV-I 0 W/m 13,4 C 13,5 C 17,7 km/h (3 Bft)
23.06.2023 01:15 15,2 C 14,4 C 89 % 1018,3 hPa 0,0 l/m 8,0 km/h (2 Bft) W 270 0 min 0,0 UV-I 0 W/m 13,4 C 14,3 C 12,9 km/h (3 Bft)
23.06.2023 01:16 15,3 C 14,4 C 89 % 1018,3 hPa 0,0 l/m 8,0 km/h (2 Bft) W-SW 247 0 min 0,0 UV-I 0 W/m 13,5 C 14,4 C 14,5 km/h (3 Bft)
23.06.2023 01:17 15,3 C 14,4 C 89 % 1018,4 hPa 0,0 l/m 12,9 km/h (3 Bft) W 270 0 min 0,0 UV-I 0 W/m 13,5 C 12,3 C 20,9 km/h (4 Bft)
23.06.2023 01:18 15,3 C 14,4 C 89 % 1018,4 hPa 0,0 l/m 8,0 km/h (2 Bft) W-NW 292 0 min 0,0 UV-I 0 W/m 13,5 C 14,4 C 12,9 km/h (3 Bft)
23.06.2023 01:19 15,3 C 14,4 C 89 % 1018,4 hPa 0,0 l/m 4,8 km/h (1 Bft) W 270 0 min 0,0 UV-I 0 W/m 13,5 C 15,3 C 9,7 km/h (2 Bft)
23.06.2023 01:20 15,3 C 14,4 C 89 % 1018,4 hPa 0,0 l/m 8,0 km/h (2 Bft) W 270 0 min 0,0 UV-I 0 W/m 13,5 C 14,4 C 11,3 km/h (2 Bft)
23.06.2023 01:21 15,3 C 14,4 C 89 % 1018,4 hPa 0,0 l/m 8,0 km/h (2 Bft) W 270 0 min 0,0 UV-I 0 W/m 13,5 C 14,4 C 17,7 km/h (3 Bft)
23.06.2023 01:22 15,3 C 14,4 C 89 % 1018,5 hPa 0,0 l/m 4,8 km/h (1 Bft) W 270 0 min 0,0 UV-I 0 W/m 13,5 C 15,3 C 11,3 km/h (2 Bft)
23.06.2023 01:23 15,3 C 14,4 C 89 % 1018,4 hPa 0,0 l/m 4,8 km/h (1 Bft) W-NW 292 0 min 0,0 UV-I 0 W/m 13,5 C 15,3 C 11,3 km/h (2 Bft)
23.06.2023 01:24 15,4 C 14,4 C 89 % 1018,5 hPa 0,0 l/m 8,0 km/h (2 Bft) SW 225 0 min 0,0 UV-I 0 W/m 13,6 C 14,5 C 11,3 km/h (2 Bft)
23.06.2023 01:25 15,4 C 14,4 C 89 % 1018,4 hPa 0,0 l/m 4,8 km/h (1 Bft) SW 225 0 min 0,0 UV-I 0 W/m 13,6 C 15,4 C 9,7 km/h (2 Bft)
23.06.2023 01:26 15,4 C 14,4 C 89 % 1018,4 hPa 0,0 l/m 11,3 km/h (2 Bft) W 270 0 min 0,0 UV-I 0 W/m 13,6 C 13,0 C 14,5 km/h (3 Bft)
23.06.2023 01:27 15,4 C 14,4 C 89 % 1018,4 hPa 0,0 l/m 3,2 km/h (1 Bft) W-NW 292 0 min 0,0 UV-I 0 W/m 13,6 C 15,4 C 6,4 km/h (2 Bft)
23.06.2023 01:28 15,4 C 14,4 C 89 % 1018,4 hPa 0,0 l/m 4,8 km/h (1 Bft) W-SW 247 0 min 0,0 UV-I 0 W/m 13,6 C 15,4 C 11,3 km/h (2 Bft)
23.06.2023 01:29 15,4 C 14,4 C 89 % 1018,4 hPa 0,0 l/m 6,4 km/h (2 Bft) W 270 0 min 0,0 UV-I 0 W/m 13,6 C 15,4 C 11,3 km/h (2 Bft)
23.06.2023 01:30 15,4 C 14,4 C 89 % 1018,5 hPa 0,0 l/m 4,8 km/h (1 Bft) W-SW 247 0 min 0,0 UV-I 0 W/m 13,6 C 15,4 C 8,0 km/h (2 Bft)
23.06.2023 01:31 15,4 C 14,4 C 89 % 1018,4 hPa 0,0 l/m 6,4 km/h (2 Bft) SW 225 0 min 0,0 UV-I 0 W/m 13,6 C 15,4 C 9,7 km/h (2 Bft)
23.06.2023 01:32 15,4 C 14,4 C 89 % 1018,5 hPa 0,0 l/m 8,0 km/h (2 Bft) W-SW 247 0 min 0,0 UV-I 0 W/m 13,6 C 14,5 C 14,5 km/h (3 Bft)
23.06.2023 01:33 15,3 C 14,4 C 89 % 1018,5 hPa 0,0 l/m 1,6 km/h (1 Bft) W-SW 247 0 min 0,0 UV-I 0 W/m 13,5 C 15,3 C 3,2 km/h (1 Bft)
23.06.2023 01:34 15,3 C 14,4 C 89 % 1018,5 hPa 0,0 l/m 8,0 km/h (2 Bft) SW 225 0 min 0,0 UV-I 0 W/m 13,5 C 14,4 C 16,1 km/h (3 Bft)
23.06.2023 01:35 15,3 C 14,4 C 89 % 1018,4 hPa 0,0 l/m 9,7 km/h (2 Bft) W 270 0 min 0,0 UV-I 0 W/m 13,5 C 13,6 C 17,7 km/h (3 Bft)
23.06.2023 01:36 15,3 C 14,4 C 89 % 1018,6 hPa 0,0 l/m 6,4 km/h (2 Bft) W 270 0 min 0,0 UV-I 0 W/m 13,5 C 15,3 C 12,9 km/h (3 Bft)
23.06.2023 01:37 15,3 C 14,4 C 89 % 1018,4 hPa 0,0 l/m 9,7 km/h (2 Bft) W 270 0 min 0,0 UV-I 0 W/m 13,5 C 13,6 C 16,1 km/h (3 Bft)
23.06.2023 01:38 15,3 C 14,4 C 89 % 1018,6 hPa 0,0 l/m 8,0 km/h (2 Bft) W-SW 247 0 min 0,0 UV-I 0 W/m 13,5 C 14,4 C 14,5 km/h (3 Bft)
23.06.2023 01:39 15,3 C 14,4 C 89 % 1018,5 hPa 0,0 l/m 8,0 km/h (2 Bft) W 270 0 min 0,0 UV-I 0 W/m 13,5 C 14,4 C 14,5 km/h (3 Bft)
23.06.2023 01:40 15,3 C 14,4 C 89 % 1018,6 hPa 0,0 l/m 14,5 km/h (3 Bft) W-SW 247 0 min 0,0 UV-I 0 W/m 13,5 C 11,7 C 19,3 km/h (3 Bft)
23.06.2023 01:41 15,3 C 14,4 C 89 % 1018,5 hPa 0,0 l/m 6,4 km/h (2 Bft) SW 225 0 min 0,0 UV-I 0 W/m 13,5 C 15,3 C 17,7 km/h (3 Bft)
23.06.2023 01:42 15,3 C 14,4 C 89 % 1018,5 hPa 0,0 l/m 8,0 km/h (2 Bft) W 270 0 min 0,0 UV-I 0 W/m 13,5 C 14,4 C 12,9 km/h (3 Bft)
23.06.2023 01:43 15,3 C 14,4 C 89 % 1018,6 hPa 0,0 l/m 12,9 km/h (3 Bft) W 270 0 min 0,0 UV-I 0 W/m 13,5 C 12,3 C 17,7 km/h (3 Bft)
23.06.2023 01:44 15,3 C 14,4 C 89 % 1018,6 hPa 0,0 l/m 8,0 km/h (2 Bft) W-NW 292 0 min 0,0 UV-I 0 W/m 13,5 C 14,4 C 14,5 km/h (3 Bft)
23.06.2023 01:45 15,3 C 14,4 C 89 % 1018,6 hPa 0,0 l/m 11,3 km/h (2 Bft) W-SW 247 0 min 0,0 UV-I 0 W/m 13,5 C 12,9 C 22,5 km/h (4 Bft)
23.06.2023 01:46 15,3 C 14,4 C 89 % 1018,6 hPa 0,0 l/m 8,0 km/h (2 Bft) SW 225 0 min 0,0 UV-I 0 W/m 13,5 C 14,4 C 11,3 km/h (2 Bft)
23.06.2023 01:47 15,3 C 14,4 C 89 % 1018,5 hPa 0,0 l/m 8,0 km/h (2 Bft) SW 225 0 min 0,0 UV-I 0 W/m 13,5 C 14,4 C 12,9 km/h (3 Bft)
23.06.2023 01:48 15,3 C 14,4 C 89 % 1018,5 hPa 0,0 l/m 11,3 km/h (2 Bft) W-SW 247 0 min 0,0 UV-I 0 W/m 13,5 C 12,9 C 16,1 km/h (3 Bft)
23.06.2023 01:49 15,3 C 14,4 C 89 % 1018,6 hPa 0,0 l/m 8,0 km/h (2 Bft) W-SW 247 0 min 0,0 UV-I 0 W/m 13,5 C 14,4 C 14,5 km/h (3 Bft)
23.06.2023 01:50 15,3 C 14,4 C 89 % 1018,6 hPa 0,0 l/m 9,7 km/h (2 Bft) W-SW 247 0 min 0,0 UV-I 0 W/m 13,5 C 13,6 C 14,5 km/h (3 Bft)
23.06.2023 01:51 15,3 C 14,4 C 89 % 1018,6 hPa 0,0 l/m 8,0 km/h (2 Bft) W-SW 247 0 min 0,0 UV-I 0 W/m 13,5 C 14,4 C 14,5 km/h (3 Bft)
23.06.2023 01:52 15,3 C 13,9 C 89 % 1018,5 hPa 0,0 l/m 12,9 km/h (3 Bft) W 270 0 min 0,0 UV-I 0 W/m 13,5 C 12,3 C 17,7 km/h (3 Bft)
23.06.2023 01:53 15,3 C 13,9 C 89 % 1018,5 hPa 0,0 l/m 9,7 km/h (2 Bft) W 270 0 min 0,0 UV-I 0 W/m 13,5 C 13,6 C 19,3 km/h (3 Bft)
23.06.2023 01:54 15,3 C 13,9 C 89 % 1018,5 hPa 0,0 l/m 14,5 km/h (3 Bft) W-SW 247 0 min 0,0 UV-I 0 W/m 13,5 C 11,7 C 22,5 km/h (4 Bft)
23.06.2023 01:55 15,3 C 13,9 C 89 % 1018,5 hPa 0,0 l/m 4,8 km/h (1 Bft) W-SW 247 0 min 0,0 UV-I 0 W/m 13,5 C 15,3 C 8,0 km/h (2 Bft)
23.06.2023 01:56 15,2 C 13,9 C 89 % 1018,5 hPa 0,0 l/m 8,0 km/h (2 Bft) W-SW 247 0 min 0,0 UV-I 0 W/m 13,4 C 14,3 C 16,1 km/h (3 Bft)
23.06.2023 01:57 15,2 C 13,9 C 89 % 1018,6 hPa 0,0 l/m 11,3 km/h (2 Bft) W-SW 247 0 min 0,0 UV-I 0 W/m 13,4 C 12,8 C 14,5 km/h (3 Bft)
23.06.2023 01:58 15,2 C 13,9 C 89 % 1018,6 hPa 0,0 l/m 9,7 km/h (2 Bft) SW 225 0 min 0,0 UV-I 0 W/m 13,4 C 13,5 C 17,7 km/h (3 Bft)
23.06.2023 01:59 15,2 C 13,9 C 89 % 1018,6 hPa 0,0 l/m 11,3 km/h (2 Bft) W 270 0 min 0,0 UV-I 0 W/m 13,4 C 12,8 C 19,3 km/h (3 Bft)
23.06.2023 02:00 15,1 C 13,9 C 89 % 1018,6 hPa 0,0 l/m 11,3 km/h (2 Bft) W-SW 247 0 min 0,0 UV-I 0 W/m 13,3 C 12,7 C 16,1 km/h (3 Bft)
23.06.2023 02:01 15,1 C 13,9 C 89 % 1018,7 hPa 0,0 l/m 4,8 km/h (1 Bft) W 270 0 min 0,0 UV-I 0 W/m 13,3 C 15,1 C 6,4 km/h (2 Bft)
23.06.2023 02:02 15,1 C 13,9 C 89 % 1018,6 hPa 0,0 l/m 6,4 km/h (2 Bft) SW 225 0 min 0,0 UV-I 0 W/m 13,3 C 15,1 C 12,9 km/h (3 Bft)
23.06.2023 02:03 15,1 C 13,9 C 89 % 1018,5 hPa 0,0 l/m 8,0 km/h (2 Bft) W-NW 292 0 min 0,0 UV-I 0 W/m 13,3 C 14,2 C 14,5 km/h (3 Bft)
23.06.2023 02:04 15,0 C 13,9 C 89 % 1018,5 hPa 0,0 l/m 12,9 km/h (3 Bft) W 270 0 min 0,0 UV-I 0 W/m 13,2 C 11,9 C 22,5 km/h (4 Bft)
23.06.2023 02:05 15,0 C 13,9 C 89 % 1018,6 hPa 0,0 l/m 12,9 km/h (3 Bft) W 270 0 min 0,0 UV-I 0 W/m 13,2 C 11,9 C 17,7 km/h (3 Bft)
23.06.2023 02:06 15,0 C 13,9 C 89 % 1018,6 hPa 0,0 l/m 12,9 km/h (3 Bft) W 270 0 min 0,0 UV-I 0 W/m 13,2 C 11,9 C 17,7 km/h (3 Bft)
23.06.2023 02:07 14,9 C 13,9 C 88 % 1018,6 hPa 0,0 l/m 12,9 km/h (3 Bft) W 270 0 min 0,0 UV-I 0 W/m 12,9 C 11,8 C 19,3 km/h (3 Bft)
23.06.2023 02:08 14,9 C 13,9 C 88 % 1018,6 hPa 0,0 l/m 12,9 km/h (3 Bft) W-SW 247 0 min 0,0 UV-I 0 W/m 12,9 C 11,8 C 19,3 km/h (3 Bft)
23.06.2023 02:09 14,9 C 13,9 C 88 % 1018,7 hPa 0,0 l/m 9,7 km/h (2 Bft) W 270 0 min 0,0 UV-I 0 W/m 12,9 C 13,1 C 16,1 km/h (3 Bft)
23.06.2023 02:10 14,9 C 13,9 C 88 % 1018,7 hPa 0,0 l/m 9,7 km/h (2 Bft) W 270 0 min 0,0 UV-I 0 W/m 12,9 C 13,1 C 17,7 km/h (3 Bft)
23.06.2023 02:11 14,9 C 13,9 C 88 % 1018,7 hPa 0,0 l/m 8,0 km/h (2 Bft) W 270 0 min 0,0 UV-I 0 W/m 12,9 C 14,0 C 14,5 km/h (3 Bft)
23.06.2023 02:12 14,9 C 13,9 C 88 % 1018,9 hPa 0,0 l/m 4,8 km/h (1 Bft) W 270 0 min 0,0 UV-I 0 W/m 12,9 C 14,9 C 11,3 km/h (2 Bft)
23.06.2023 02:13 14,9 C 13,3 C 88 % 1018,9 hPa 0,0 l/m 11,3 km/h (2 Bft) W-SW 247 0 min 0,0 UV-I 0 W/m 12,9 C 12,4 C 12,9 km/h (3 Bft)
23.06.2023 02:14 14,8 C 13,3 C 88 % 1019,0 hPa 0,0 l/m 8,0 km/h (2 Bft) W-SW 247 0 min 0,0 UV-I 0 W/m 12,8 C 13,9 C 14,5 km/h (3 Bft)
23.06.2023 02:15 14,8 C 13,3 C 88 % 1019,0 hPa 0,0 l/m 9,7 km/h (2 Bft) W-SW 247 0 min 0,0 UV-I 0 W/m 12,8 C 13,0 C 14,5 km/h (3 Bft)
23.06.2023 02:16 14,8 C 13,3 C 88 % 1018,9 hPa 0,0 l/m 4,8 km/h (1 Bft) W-NW 292 0 min 0,0 UV-I 0 W/m 12,8 C 14,8 C 6,4 km/h (2 Bft)
23.06.2023 02:17 14,8 C 13,3 C 88 % 1019,0 hPa 0,0 l/m 4,8 km/h (1 Bft) W 270 0 min 0,0 UV-I 0 W/m 12,8 C 14,8 C 6,4 km/h (2 Bft)
23.06.2023 02:18 14,8 C 13,3 C 88 % 1019,1 hPa 0,0 l/m 6,4 km/h (2 Bft) W 270 0 min 0,0 UV-I 0 W/m 12,8 C 14,8 C 12,9 km/h (3 Bft)
23.06.2023 02:19 14,7 C 13,3 C 88 % 1019,1 hPa 0,0 l/m 1,6 km/h (1 Bft) W 270 0 min 0,0 UV-I 0 W/m 12,7 C 14,7 C 4,8 km/h (1 Bft)
23.06.2023 02:20 14,7 C 13,3 C 88 % 1019,0 hPa 0,0 l/m 4,8 km/h (1 Bft) W 270 0 min 0,0 UV-I 0 W/m 12,7 C 14,7 C 16,1 km/h (3 Bft)
23.06.2023 02:21 14,7 C 13,3 C 88 % 1019,0 hPa 0,0 l/m 8,0 km/h (2 Bft) W-SW 247 0 min 0,0 UV-I 0 W/m 12,7 C 13,8 C 11,3 km/h (2 Bft)
23.06.2023 02:22 14,7 C 13,3 C 88 % 1019,1 hPa 0,0 l/m 6,4 km/h (2 Bft) SW 225 0 min 0,0 UV-I 0 W/m 12,7 C 14,7 C 12,9 km/h (3 Bft)
23.06.2023 02:23 14,7 C 13,3 C 88 % 1019,1 hPa 0,0 l/m 8,0 km/h (2 Bft) W 270 0 min 0,0 UV-I 0 W/m 12,7 C 13,8 C 14,5 km/h (3 Bft)
23.06.2023 02:24 14,7 C 13,3 C 89 % 1019,1 hPa 0,0 l/m 6,4 km/h (2 Bft) W-SW 247 0 min 0,0 UV-I 0 W/m 12,9 C 14,7 C 8,0 km/h (2 Bft)
23.06.2023 02:25 14,7 C 13,3 C 89 % 1019,2 hPa 0,0 l/m 6,4 km/h (2 Bft) W-SW 247 0 min 0,0 UV-I 0 W/m 12,9 C 14,7 C 9,7 km/h (2 Bft)
23.06.2023 02:26 14,7 C 13,3 C 89 % 1019,1 hPa 0,0 l/m 8,0 km/h (2 Bft) W-SW 247 0 min 0,0 UV-I 0 W/m 12,9 C 13,8 C 14,5 km/h (3 Bft)
23.06.2023 02:27 14,6 C 13,3 C 89 % 1019,1 hPa 0,0 l/m 6,4 km/h (2 Bft) W 270 0 min 0,0 UV-I 0 W/m 12,8 C 14,6 C 11,3 km/h (2 Bft)
23.06.2023 02:28 14,6 C 13,3 C 89 % 1019,1 hPa 0,0 l/m 6,4 km/h (2 Bft) W 270 0 min 0,0 UV-I 0 W/m 12,8 C 14,6 C 11,3 km/h (2 Bft)
23.06.2023 02:29 14,6 C 13,3 C 89 % 1019,0 hPa 0,0 l/m 4,8 km/h (1 Bft) W-SW 247 0 min 0,0 UV-I 0 W/m 12,8 C 14,6 C 6,4 km/h (2 Bft)
23.06.2023 02:30 14,6 C 13,3 C 89 % 1019,2 hPa 0,0 l/m 4,8 km/h (1 Bft) SW 225 0 min 0,0 UV-I 0 W/m 12,8 C 14,6 C 4,8 km/h (1 Bft)
23.06.2023 02:31 14,6 C 13,3 C 89 % 1019,2 hPa 0,0 l/m 6,4 km/h (2 Bft) SW 225 0 min 0,0 UV-I 0 W/m 12,8 C 14,6 C 17,7 km/h (3 Bft)
23.06.2023 02:32 14,6 C 13,3 C 89 % 1019,2 hPa 0,0 l/m 9,7 km/h (2 Bft) W 270 0 min 0,0 UV-I 0 W/m 12,8 C 12,8 C 12,9 km/h (3 Bft)
23.06.2023 02:33 14,6 C 13,3 C 89 % 1019,2 hPa 0,0 l/m 9,7 km/h (2 Bft) W 270 0 min 0,0 UV-I 0 W/m 12,8 C 12,8 C 14,5 km/h (3 Bft)
23.06.2023 02:34 14,6 C 13,3 C 89 % 1019,1 hPa 0,0 l/m 8,0 km/h (2 Bft) W-SW 247 0 min 0,0 UV-I 0 W/m 12,8 C 13,7 C 12,9 km/h (3 Bft)
23.06.2023 02:35 14,5 C 13,3 C 89 % 1019,2 hPa 0,0 l/m 9,7 km/h (2 Bft) W-SW 247 0 min 0,0 UV-I 0 W/m 12,7 C 12,7 C 14,5 km/h (3 Bft)
23.06.2023 02:36 14,5 C 13,3 C 89 % 1019,2 hPa 0,0 l/m 8,0 km/h (2 Bft) SW 225 0 min 0,0 UV-I 0 W/m 12,7 C 13,6 C 11,3 km/h (2 Bft)
23.06.2023 02:37 14,5 C 13,3 C 89 % 1019,2 hPa 0,0 l/m 8,0 km/h (2 Bft) W 270 0 min 0,0 UV-I 0 W/m 12,7 C 13,6 C 14,5 km/h (3 Bft)
23.06.2023 02:38 14,5 C 13,3 C 89 % 1019,2 hPa 0,0 l/m 6,4 km/h (2 Bft) W-SW 247 0 min 0,0 UV-I 0 W/m 12,7 C 14,5 C 9,7 km/h (2 Bft)
23.06.2023 02:39 14,5 C 13,3 C 89 % 1019,3 hPa 0,0 l/m 4,8 km/h (1 Bft) W-SW 247 0 min 0,0 UV-I 0 W/m 12,7 C 14,5 C 6,4 km/h (2 Bft)
23.06.2023 02:40 14,4 C 13,3 C 89 % 1019,3 hPa 0,0 l/m 6,4 km/h (2 Bft) W 270 0 min 0,0 UV-I 0 W/m 12,6 C 14,4 C 12,9 km/h (3 Bft)
23.06.2023 02:41 14,4 C 13,3 C 89 % 1019,3 hPa 0,0 l/m 6,4 km/h (2 Bft) W-SW 247 0 min 0,0 UV-I 0 W/m 12,6 C 14,4 C 11,3 km/h (2 Bft)
23.06.2023 02:42 14,4 C 13,3 C 89 % 1019,3 hPa 0,0 l/m 9,7 km/h (2 Bft) W 270 0 min 0,0 UV-I 0 W/m 12,6 C 12,6 C 12,9 km/h (3 Bft)
23.06.2023 02:43 14,4 C 13,3 C 89 % 1019,3 hPa 0,0 l/m 4,8 km/h (1 Bft) W 270 0 min 0,0 UV-I 0 W/m 12,6 C 14,4 C 6,4 km/h (2 Bft)
23.06.2023 02:44 14,5 C 13,3 C 89 % 1019,3 hPa 0,0 l/m 6,4 km/h (2 Bft) W-SW 247 0 min 0,0 UV-I 0 W/m 12,7 C 14,5 C 9,7 km/h (2 Bft)
23.06.2023 02:45 14,4 C 13,3 C 89 % 1019,2 hPa 0,0 l/m 4,8 km/h (1 Bft) W-SW 247 0 min 0,0 UV-I 0 W/m 12,6 C 14,4 C 9,7 km/h (2 Bft)
23.06.2023 02:46 14,4 C 13,3 C 89 % 1019,3 hPa 0,0 l/m 6,4 km/h (2 Bft) SW 225 0 min 0,0 UV-I 0 W/m 12,6 C 14,4 C 11,3 km/h (2 Bft)
23.06.2023 02:47 14,4 C 13,3 C 89 % 1019,3 hPa 0,0 l/m 9,7 km/h (2 Bft) W 270 0 min 0,0 UV-I 0 W/m 12,6 C 12,6 C 12,9 km/h (3 Bft)
23.06.2023 02:48 14,4 C 13,3 C 89 % 1019,3 hPa 0,0 l/m 4,8 km/h (1 Bft) W-SW 247 0 min 0,0 UV-I 0 W/m 12,6 C 14,4 C 6,4 km/h (2 Bft)
23.06.2023 02:49 14,4 C 13,3 C 89 % 1019,2 hPa 0,0 l/m 6,4 km/h (2 Bft) W-SW 247 0 min 0,0 UV-I 0 W/m 12,6 C 14,4 C 11,3 km/h (2 Bft)
23.06.2023 02:50 14,4 C 13,3 C 89 % 1019,2 hPa 0,0 l/m 4,8 km/h (1 Bft) W 270 0 min 0,0 UV-I 0 W/m 12,6 C 14,4 C 6,4 km/h (2 Bft)
23.06.2023 02:51 14,3 C 12,8 C 89 % 1019,2 hPa 0,0 l/m 6,4 km/h (2 Bft) W-SW 247 0 min 0,0 UV-I 0 W/m 12,5 C 14,3 C 9,7 km/h (2 Bft)
23.06.2023 02:52 14,4 C 12,8 C 89 % 1019,2 hPa 0,0 l/m 8,0 km/h (2 Bft) W 270 0 min 0,0 UV-I 0 W/m 12,6 C 13,5 C 12,9 km/h (3 Bft)
23.06.2023 02:53 14,3 C 12,8 C 89 % 1019,2 hPa 0,0 l/m 3,2 km/h (1 Bft) W 270 0 min 0,0 UV-I 0 W/m 12,5 C 14,3 C 6,4 km/h (2 Bft)
23.06.2023 02:54 14,3 C 12,8 C 89 % 1019,2 hPa 0,0 l/m 6,4 km/h (2 Bft) W 270 0 min 0,0 UV-I 0 W/m 12,5 C 14,3 C 11,3 km/h (2 Bft)
23.06.2023 02:55 14,3 C 12,8 C 89 % 1019,2 hPa 0,0 l/m 4,8 km/h (1 Bft) SW 225 0 min 0,0 UV-I 0 W/m 12,5 C 14,3 C 9,7 km/h (2 Bft)
23.06.2023 02:56 14,3 C 12,8 C 89 % 1019,2 hPa 0,0 l/m 8,0 km/h (2 Bft) SW 225 0 min 0,0 UV-I 0 W/m 12,5 C 13,4 C 12,9 km/h (3 Bft)
23.06.2023 02:57 14,3 C 13,3 C 89 % 1019,1 hPa 0,0 l/m 6,4 km/h (2 Bft) W-SW 247 0 min 0,0 UV-I 0 W/m 12,5 C 14,3 C 11,3 km/h (2 Bft)
23.06.2023 02:58 14,3 C 13,3 C 89 % 1019,2 hPa 0,0 l/m 6,4 km/h (2 Bft) W-SW 247 0 min 0,0 UV-I 0 W/m 12,5 C 14,3 C 8,0 km/h (2 Bft)
23.06.2023 02:59 14,3 C 13,3 C 89 % 1019,1 hPa 0,0 l/m 8,0 km/h (2 Bft) W-SW 247 0 min 0,0 UV-I 0 W/m 12,5 C 13,4 C 11,3 km/h (2 Bft)
23.06.2023 03:00 14,3 C 13,3 C 89 % 1019,2 hPa 0,0 l/m 8,0 km/h (2 Bft) W-SW 247 0 min 0,0 UV-I 0 W/m 12,5 C 13,4 C 11,3 km/h (2 Bft)
23.06.2023 03:01 14,3 C 13,3 C 89 % 1019,2 hPa 0,0 l/m 4,8 km/h (1 Bft) W 270 0 min 0,0 UV-I 0 W/m 12,5 C 14,3 C 11,3 km/h (2 Bft)
23.06.2023 03:02 14,3 C 13,3 C 90 % 1019,2 hPa 0,0 l/m 6,4 km/h (2 Bft) W 270 0 min 0,0 UV-I 0 W/m 12,7 C 14,3 C 11,3 km/h (2 Bft)
23.06.2023 03:03 14,3 C 13,3 C 90 % 1019,2 hPa 0,0 l/m 8,0 km/h (2 Bft) W-SW 247 0 min 0,0 UV-I 0 W/m 12,7 C 13,4 C 14,5 km/h (3 Bft)
23.06.2023 03:04 14,3 C 13,3 C 90 % 1019,2 hPa 0,0 l/m 8,0 km/h (2 Bft) SW 225 0 min 0,0 UV-I 0 W/m 12,7 C 13,4 C 12,9 km/h (3 Bft)
23.06.2023 03:05 14,3 C 13,3 C 90 % 1019,2 hPa 0,0 l/m 9,7 km/h (2 Bft) W 270 0 min 0,0 UV-I 0 W/m 12,7 C 12,5 C 12,9 km/h (3 Bft)
23.06.2023 03:06 14,4 C 13,3 C 90 % 1019,2 hPa 0,0 l/m 4,8 km/h (1 Bft) W-SW 247 0 min 0,0 UV-I 0 W/m 12,8 C 14,4 C 12,9 km/h (3 Bft)
23.06.2023 03:07 14,4 C 13,3 C 90 % 1019,2 hPa 0,0 l/m 8,0 km/h (2 Bft) SW 225 0 min 0,0 UV-I 0 W/m 12,8 C 13,5 C 14,5 km/h (3 Bft)
23.06.2023 03:08 14,4 C 13,3 C 90 % 1019,2 hPa 0,0 l/m 4,8 km/h (1 Bft) W-SW 247 0 min 0,0 UV-I 0 W/m 12,8 C 14,4 C 9,7 km/h (2 Bft)
23.06.2023 03:09 14,4 C 13,3 C 90 % 1019,2 hPa 0,0 l/m 6,4 km/h (2 Bft) S-SW 202 0 min 0,0 UV-I 0 W/m 12,8 C 14,4 C 11,3 km/h (2 Bft)
23.06.2023 03:10 14,4 C 13,3 C 90 % 1019,1 hPa 0,0 l/m 4,8 km/h (1 Bft) SW 225 0 min 0,0 UV-I 0 W/m 12,8 C 14,4 C 9,7 km/h (2 Bft)
23.06.2023 03:11 14,4 C 13,3 C 90 % 1019,2 hPa 0,0 l/m 6,4 km/h (2 Bft) W-SW 247 0 min 0,0 UV-I 0 W/m 12,8 C 14,4 C 12,9 km/h (3 Bft)
23.06.2023 03:12 14,4 C 13,3 C 90 % 1019,2 hPa 0,0 l/m 14,5 km/h (3 Bft) W-SW 247 0 min 0,0 UV-I 0 W/m 12,8 C 10,6 C 20,9 km/h (4 Bft)
23.06.2023 03:13 14,4 C 13,3 C 90 % 1019,2 hPa 0,0 l/m 8,0 km/h (2 Bft) W-SW 247 0 min 0,0 UV-I 0 W/m 12,8 C 13,5 C 12,9 km/h (3 Bft)
23.06.2023 03:14 14,4 C 13,3 C 90 % 1019,1 hPa 0,0 l/m 9,7 km/h (2 Bft) SW 225 0 min 0,0 UV-I 0 W/m 12,8 C 12,6 C 14,5 km/h (3 Bft)
23.06.2023 03:15 14,5 C 13,3 C 90 % 1019,2 hPa 0,0 l/m 11,3 km/h (2 Bft) SW 225 0 min 0,0 UV-I 0 W/m 12,9 C 12,0 C 19,3 km/h (3 Bft)
23.06.2023 03:16 14,5 C 13,3 C 90 % 1019,1 hPa 0,0 l/m 14,5 km/h (3 Bft) W 270 0 min 0,0 UV-I 0 W/m 12,9 C 10,8 C 19,3 km/h (3 Bft)
23.06.2023 03:17 14,5 C 13,3 C 90 % 1019,1 hPa 0,0 l/m 9,7 km/h (2 Bft) W-SW 247 0 min 0,0 UV-I 0 W/m 12,9 C 12,7 C 17,7 km/h (3 Bft)
23.06.2023 03:18 14,5 C 13,3 C 90 % 1019,1 hPa 0,0 l/m 8,0 km/h (2 Bft) SW 225 0 min 0,0 UV-I 0 W/m 12,9 C 13,6 C 11,3 km/h (2 Bft)
23.06.2023 03:19 14,6 C 13,3 C 90 % 1019,1 hPa 0,0 l/m 6,4 km/h (2 Bft) SW 225 0 min 0,0 UV-I 0 W/m 13,0 C 14,6 C 9,7 km/h (2 Bft)
23.06.2023 03:20 14,5 C 13,3 C 90 % 1019,2 hPa 0,0 l/m 9,7 km/h (2 Bft) W 270 0 min 0,0 UV-I 0 W/m 12,9 C 12,7 C 16,1 km/h (3 Bft)
23.06.2023 03:21 14,5 C 13,3 C 90 % 1019,1 hPa 0,0 l/m 11,3 km/h (2 Bft) W 270 0 min 0,0 UV-I 0 W/m 12,9 C 12,0 C 14,5 km/h (3 Bft)
23.06.2023 03:22 14,5 C 13,3 C 89 % 1019,2 hPa 0,0 l/m 9,7 km/h (2 Bft) W-SW 247 0 min 0,0 UV-I 0 W/m 12,7 C 12,7 C 16,1 km/h (3 Bft)
23.06.2023 03:23 14,5 C 13,3 C 89 % 1019,1 hPa 0,0 l/m 12,9 km/h (3 Bft) W 270 0 min 0,0 UV-I 0 W/m 12,7 C 11,3 C 27,4 km/h (4 Bft)
23.06.2023 03:24 14,5 C 13,3 C 89 % 1019,2 hPa 0,0 l/m 9,7 km/h (2 Bft) W 270 0 min 0,0 UV-I 0 W/m 12,7 C 12,7 C 16,1 km/h (3 Bft)
23.06.2023 03:25 14,5 C 13,3 C 89 % 1019,2 hPa 0,0 l/m 6,4 km/h (2 Bft) SW 225 0 min 0,0 UV-I 0 W/m 12,7 C 14,5 C 9,7 km/h (2 Bft)
23.06.2023 03:26 14,5 C 13,3 C 89 % 1019,1 hPa 0,0 l/m 9,7 km/h (2 Bft) SW 225 0 min 0,0 UV-I 0 W/m 12,7 C 12,7 C 16,1 km/h (3 Bft)
23.06.2023 03:27 14,5 C 13,3 C 89 % 1019,1 hPa 0,0 l/m 9,7 km/h (2 Bft) W 270 0 min 0,0 UV-I 0 W/m 12,7 C 12,7 C 14,5 km/h (3 Bft)
23.06.2023 03:28 14,4 C 13,3 C 89 % 1019,2 hPa 0,0 l/m 8,0 km/h (2 Bft) W 270 0 min 0,0 UV-I 0 W/m 12,6 C 13,5 C 12,9 km/h (3 Bft)
23.06.2023 03:29 14,4 C 13,3 C 89 % 1019,2 hPa 0,0 l/m 11,3 km/h (2 Bft) W 270 0 min 0,0 UV-I 0 W/m 12,6 C 11,9 C 16,1 km/h (3 Bft)
23.06.2023 03:30 14,4 C 13,3 C 89 % 1019,3 hPa 0,0 l/m 12,9 km/h (3 Bft) W-SW 247 0 min 0,0 UV-I 0 W/m 12,6 C 11,2 C 17,7 km/h (3 Bft)
23.06.2023 03:31 14,4 C 13,3 C 89 % 1019,3 hPa 0,0 l/m 11,3 km/h (2 Bft) W-SW 247 0 min 0,0 UV-I 0 W/m 12,6 C 11,9 C 14,5 km/h (3 Bft)
23.06.2023 03:32 14,4 C 13,3 C 89 % 1019,4 hPa 0,0 l/m 11,3 km/h (2 Bft) W 270 0 min 0,0 UV-I 0 W/m 12,6 C 11,9 C 19,3 km/h (3 Bft)
23.06.2023 03:33 14,4 C 13,3 C 89 % 1019,3 hPa 0,0 l/m 9,7 km/h (2 Bft) W 270 0 min 0,0 UV-I 0 W/m 12,6 C 12,6 C 22,5 km/h (4 Bft)
23.06.2023 03:34 14,4 C 13,3 C 89 % 1019,3 hPa 0,0 l/m 12,9 km/h (3 Bft) W 270 0 min 0,0 UV-I 0 W/m 12,6 C 11,2 C 19,3 km/h (3 Bft)
23.06.2023 03:35 14,4 C 13,3 C 89 % 1019,4 hPa 0,0 l/m 11,3 km/h (2 Bft) W-SW 247 0 min 0,0 UV-I 0 W/m 12,6 C 11,9 C 19,3 km/h (3 Bft)
23.06.2023 03:36 14,4 C 13,3 C 89 % 1019,4 hPa 0,0 l/m 11,3 km/h (2 Bft) W 270 0 min 0,0 UV-I 0 W/m 12,6 C 11,9 C 19,3 km/h (3 Bft)
23.06.2023 03:37 14,4 C 13,3 C 89 % 1019,4 hPa 0,0 l/m 11,3 km/h (2 Bft) W 270 0 min 0,0 UV-I 0 W/m 12,6 C 11,9 C 17,7 km/h (3 Bft)
23.06.2023 03:38 14,4 C 13,3 C 89 % 1019,4 hPa 0,0 l/m 11,3 km/h (2 Bft) W 270 0 min 0,0 UV-I 0 W/m 12,6 C 11,9 C 24,1 km/h (4 Bft)
23.06.2023 03:39 14,4 C 13,3 C 89 % 1019,4 hPa 0,0 l/m 11,3 km/h (2 Bft) W-SW 247 0 min 0,0 UV-I 0 W/m 12,6 C 11,9 C 19,3 km/h (3 Bft)
23.06.2023 03:40 14,4 C 13,3 C 89 % 1019,4 hPa 0,0 l/m 4,8 km/h (1 Bft) W 270 0 min 0,0 UV-I 0 W/m 12,6 C 14,4 C 9,7 km/h (2 Bft)
23.06.2023 03:41 14,3 C 13,3 C 89 % 1019,5 hPa 0,0 l/m 9,7 km/h (2 Bft) W 270 0 min 0,0 UV-I 0 W/m 12,5 C 12,5 C 14,5 km/h (3 Bft)
23.06.2023 03:42 14,3 C 13,3 C 89 % 1019,4 hPa 0,0 l/m 9,7 km/h (2 Bft) W 270 0 min 0,0 UV-I 0 W/m 12,5 C 12,5 C 12,9 km/h (3 Bft)
23.06.2023 03:43 14,3 C 13,3 C 89 % 1019,5 hPa 0,0 l/m 11,3 km/h (2 Bft) W 270 0 min 0,0 UV-I 0 W/m 12,5 C 11,8 C 16,1 km/h (3 Bft)
23.06.2023 03:44 14,3 C 13,3 C 89 % 1019,5 hPa 0,0 l/m 3,2 km/h (1 Bft) W 270 0 min 0,0 UV-I 0 W/m 12,5 C 14,3 C 11,3 km/h (2 Bft)
23.06.2023 03:45 14,3 C 13,3 C 89 % 1019,5 hPa 0,0 l/m 4,8 km/h (1 Bft) W 270 0 min 0,0 UV-I 0 W/m 12,5 C 14,3 C 6,4 km/h (2 Bft)
23.06.2023 03:46 14,3 C 13,3 C 89 % 1019,5 hPa 0,0 l/m 9,7 km/h (2 Bft) W 270 0 min 0,0 UV-I 0 W/m 12,5 C 12,5 C 17,7 km/h (3 Bft)
23.06.2023 03:47 14,3 C 12,8 C 89 % 1019,5 hPa 0,0 l/m 8,0 km/h (2 Bft) W 270 0 min 0,0 UV-I 0 W/m 12,5 C 13,4 C 11,3 km/h (2 Bft)
23.06.2023 03:48 14,3 C 13,3 C 89 % 1019,5 hPa 0,0 l/m 8,0 km/h (2 Bft) W-NW 292 0 min 0,0 UV-I 0 W/m 12,5 C 13,4 C 16,1 km/h (3 Bft)
23.06.2023 03:49 14,3 C 12,8 C 89 % 1019,6 hPa 0,0 l/m 9,7 km/h (2 Bft) SW 225 0 min 0,0 UV-I 0 W/m 12,5 C 12,5 C 14,5 km/h (3 Bft)
23.06.2023 03:50 14,2 C 12,8 C 89 % 1019,6 hPa 0,0 l/m 4,8 km/h (1 Bft) S 180 0 min 0,0 UV-I 0 W/m 12,4 C 14,2 C 11,3 km/h (2 Bft)
23.06.2023 03:51 14,2 C 12,8 C 89 % 1019,6 hPa 0,0 l/m 8,0 km/h (2 Bft) W 270 0 min 0,0 UV-I 0 W/m 12,4 C 13,3 C 14,5 km/h (3 Bft)
23.06.2023 03:52 14,2 C 12,8 C 89 % 1019,7 hPa 0,0 l/m 3,2 km/h (1 Bft) W 270 0 min 0,0 UV-I 0 W/m 12,4 C 14,2 C 4,8 km/h (1 Bft)
23.06.2023 03:53 14,2 C 12,8 C 89 % 1019,7 hPa 0,0 l/m 3,2 km/h (1 Bft) W-SW 247 0 min 0,0 UV-I 0 W/m 12,4 C 14,2 C 4,8 km/h (1 Bft)
23.06.2023 03:54 14,2 C 12,8 C 89 % 1019,7 hPa 0,0 l/m 4,8 km/h (1 Bft) W-SW 247 0 min 0,0 UV-I 0 W/m 12,4 C 14,2 C 6,4 km/h (2 Bft)
23.06.2023 03:55 14,1 C 12,8 C 89 % 1019,7 hPa 0,0 l/m 3,2 km/h (1 Bft) W 270 0 min 0,0 UV-I 0 W/m 12,3 C 14,1 C 4,8 km/h (1 Bft)
23.06.2023 03:56 14,1 C 12,8 C 89 % 1019,8 hPa 0,0 l/m 6,4 km/h (2 Bft) W 270 0 min 0,0 UV-I 0 W/m 12,3 C 14,1 C 12,9 km/h (3 Bft)
23.06.2023 03:57 14,1 C 12,8 C 89 % 1019,9 hPa 0,0 l/m 8,0 km/h (2 Bft) W 270 0 min 0,0 UV-I 0 W/m 12,3 C 13,2 C 17,7 km/h (3 Bft)
23.06.2023 03:58 14,1 C 12,8 C 89 % 1019,9 hPa 0,0 l/m 3,2 km/h (1 Bft) W-SW 247 0 min 0,0 UV-I 0 W/m 12,3 C 14,1 C 6,4 km/h (2 Bft)
23.06.2023 03:59 14,0 C 12,8 C 89 % 1019,9 hPa 0,0 l/m 8,0 km/h (2 Bft) W-SW 247 0 min 0,0 UV-I 0 W/m 12,2 C 13,1 C 12,9 km/h (3 Bft)
23.06.2023 04:00 13,9 C 12,8 C 89 % 1019,9 hPa 0,0 l/m 4,8 km/h (1 Bft) SW 225 0 min 0,0 UV-I 0 W/m 12,1 C 13,9 C 8,0 km/h (2 Bft)
23.06.2023 04:01 13,9 C 12,8 C 89 % 1020,0 hPa 0,0 l/m 4,8 km/h (1 Bft) SW 225 0 min 0,0 UV-I 0 W/m 12,1 C 13,9 C 9,7 km/h (2 Bft)
23.06.2023 04:02 13,9 C 12,8 C 89 % 1019,9 hPa 0,0 l/m 4,8 km/h (1 Bft) SW 225 0 min 0,0 UV-I 0 W/m 12,1 C 13,9 C 8,0 km/h (2 Bft)
23.06.2023 04:03 13,9 C 12,8 C 89 % 1019,9 hPa 0,0 l/m 14,5 km/h (3 Bft) W-SW 247 0 min 0,0 UV-I 0 W/m 12,1 C 10,0 C 22,5 km/h (4 Bft)
23.06.2023 04:04 13,9 C 12,8 C 89 % 1019,9 hPa 0,0 l/m 6,4 km/h (2 Bft) W-NW 292 0 min 0,0 UV-I 0 W/m 12,1 C 13,9 C 16,1 km/h (3 Bft)
23.06.2023 04:05 13,9 C 12,8 C 89 % 1020,1 hPa 0,0 l/m 4,8 km/h (1 Bft) W-SW 247 0 min 0,0 UV-I 0 W/m 12,1 C 13,9 C 9,7 km/h (2 Bft)
23.06.2023 04:06 13,9 C 12,8 C 89 % 1020,0 hPa 0,0 l/m 6,4 km/h (2 Bft) W 270 0 min 0,0 UV-I 0 W/m 12,1 C 13,9 C 9,7 km/h (2 Bft)
23.06.2023 04:07 13,9 C 12,8 C 89 % 1020,0 hPa 0,0 l/m 4,8 km/h (1 Bft) S-SW 202 0 min 0,0 UV-I 0 W/m 12,1 C 13,9 C 9,7 km/h (2 Bft)
23.06.2023 04:08 13,9 C 12,8 C 89 % 1020,0 hPa 0,0 l/m 8,0 km/h (2 Bft) W 270 0 min 0,0 UV-I 0 W/m 12,1 C 12,9 C 16,1 km/h (3 Bft)
23.06.2023 04:09 13,9 C 12,8 C 89 % 1019,9 hPa 0,0 l/m 8,0 km/h (2 Bft) W-SW 247 0 min 0,0 UV-I 0 W/m 12,1 C 12,9 C 12,9 km/h (3 Bft)
23.06.2023 04:10 13,9 C 12,8 C 89 % 1019,9 hPa 0,0 l/m 9,7 km/h (2 Bft) W 270 0 min 0,0 UV-I 0 W/m 12,1 C 12,0 C 11,3 km/h (2 Bft)
23.06.2023 04:11 13,9 C 12,8 C 89 % 1019,9 hPa 0,0 l/m 12,9 km/h (3 Bft) W 270 0 min 0,0 UV-I 0 W/m 12,1 C 10,6 C 17,7 km/h (3 Bft)
23.06.2023 04:12 13,8 C 12,8 C 89 % 1020,0 hPa 0,0 l/m 11,3 km/h (2 Bft) W 270 0 min 0,0 UV-I 0 W/m 12,0 C 11,2 C 17,7 km/h (3 Bft)
23.06.2023 04:13 13,8 C 12,8 C 89 % 1019,9 hPa 0,0 l/m 11,3 km/h (2 Bft) W 270 0 min 0,0 UV-I 0 W/m 12,0 C 11,2 C 16,1 km/h (3 Bft)
23.06.2023 04:14 13,8 C 12,8 C 89 % 1019,9 hPa 0,0 l/m 8,0 km/h (2 Bft) W-SW 247 0 min 0,0 UV-I 0 W/m 12,0 C 12,8 C 14,5 km/h (3 Bft)
23.06.2023 04:15 13,8 C 12,8 C 89 % 1019,8 hPa 0,0 l/m 9,7 km/h (2 Bft) W-SW 247 0 min 0,0 UV-I 0 W/m 12,0 C 11,9 C 12,9 km/h (3 Bft)
23.06.2023 04:16 13,8 C 12,8 C 89 % 1019,8 hPa 0,0 l/m 6,4 km/h (2 Bft) SW 225 0 min 0,0 UV-I 0 W/m 12,0 C 13,8 C 11,3 km/h (2 Bft)
23.06.2023 04:17 13,8 C 12,8 C 89 % 1019,9 hPa 0,0 l/m 9,7 km/h (2 Bft) W 270 0 min 0,0 UV-I 0 W/m 12,0 C 11,9 C 12,9 km/h (3 Bft)
23.06.2023 04:18 13,8 C 12,8 C 89 % 1019,8 hPa 0,0 l/m 6,4 km/h (2 Bft) W-SW 247 0 min 0,0 UV-I 0 W/m 12,0 C 13,8 C 11,3 km/h (2 Bft)
23.06.2023 04:19 13,8 C 12,8 C 89 % 1019,9 hPa 0,0 l/m 8,0 km/h (2 Bft) W 270 0 min 0,0 UV-I 0 W/m 12,0 C 12,8 C 12,9 km/h (3 Bft)
23.06.2023 04:20 13,8 C 12,8 C 89 % 1019,9 hPa 0,0 l/m 8,0 km/h (2 Bft) W-SW 247 0 min 0,0 UV-I 0 W/m 12,0 C 12,8 C 14,5 km/h (3 Bft)
23.06.2023 04:21 13,7 C 12,8 C 89 % 1019,9 hPa 0,0 l/m 8,0 km/h (2 Bft) W-SW 247 0 min 0,0 UV-I 0 W/m 11,9 C 12,7 C 11,3 km/h (2 Bft)
23.06.2023 04:22 13,7 C 12,8 C 89 % 1019,9 hPa 0,0 l/m 9,7 km/h (2 Bft) W 270 0 min 0,0 UV-I 0 W/m 11,9 C 11,8 C 12,9 km/h (3 Bft)
23.06.2023 04:23 13,7 C 12,8 C 89 % 1019,9 hPa 0,0 l/m 6,4 km/h (2 Bft) SW 225 0 min 0,0 UV-I 0 W/m 11,9 C 13,7 C 11,3 km/h (2 Bft)
23.06.2023 04:24 13,7 C 12,8 C 89 % 1019,9 hPa 0,0 l/m 9,7 km/h (2 Bft) W-SW 247 0 min 0,0 UV-I 0 W/m 11,9 C 11,8 C 12,9 km/h (3 Bft)
23.06.2023 04:25 13,7 C 12,8 C 89 % 1020,0 hPa 0,0 l/m 9,7 km/h (2 Bft) W 270 0 min 0,0 UV-I 0 W/m 11,9 C 11,8 C 14,5 km/h (3 Bft)
23.06.2023 04:26 13,7 C 12,8 C 89 % 1020,0 hPa 0,0 l/m 9,7 km/h (2 Bft) W-SW 247 0 min 0,0 UV-I 0 W/m 11,9 C 11,8 C 14,5 km/h (3 Bft)
23.06.2023 04:27 13,7 C 12,8 C 89 % 1020,0 hPa 0,0 l/m 9,7 km/h (2 Bft) W-SW 247 0 min 0,0 UV-I 0 W/m 11,9 C 11,8 C 14,5 km/h (3 Bft)
23.06.2023 04:28 13,7 C 12,8 C 89 % 1020,0 hPa 0,0 l/m 6,4 km/h (2 Bft) W-SW 247 0 min 0,0 UV-I 0 W/m 11,9 C 13,7 C 11,3 km/h (2 Bft)
23.06.2023 04:29 13,7 C 12,8 C 89 % 1020,0 hPa 0,0 l/m 6,4 km/h (2 Bft) W 270 0 min 0,0 UV-I 0 W/m 11,9 C 13,7 C 11,3 km/h (2 Bft)
23.06.2023 04:30 13,7 C 12,8 C 89 % 1020,0 hPa 0,0 l/m 9,7 km/h (2 Bft) W-SW 247 0 min 0,0 UV-I 0 W/m 11,9 C 11,8 C 16,1 km/h (3 Bft)
23.06.2023 04:31 13,7 C 12,8 C 89 % 1020,0 hPa 0,0 l/m 11,3 km/h (2 Bft) W 270 0 min 0,0 UV-I 0 W/m 11,9 C 11,1 C 16,1 km/h (3 Bft)
23.06.2023 04:32 13,7 C 12,8 C 89 % 1020,1 hPa 0,0 l/m 9,7 km/h (2 Bft) W 270 0 min 0,0 UV-I 0 W/m 11,9 C 11,8 C 12,9 km/h (3 Bft)
23.06.2023 04:33 13,7 C 12,8 C 89 % 1020,1 hPa 0,0 l/m 8,0 km/h (2 Bft) W-SW 247 0 min 0,0 UV-I 0 W/m 11,9 C 12,7 C 12,9 km/h (3 Bft)
23.06.2023 04:34 13,7 C 12,8 C 89 % 1020,2 hPa 0,0 l/m 3,2 km/h (1 Bft) W-NW 292 0 min 0,0 UV-I 0 W/m 11,9 C 13,7 C 8,0 km/h (2 Bft)
23.06.2023 04:35 13,7 C 12,8 C 89 % 1020,2 hPa 0,0 l/m 8,0 km/h (2 Bft) W 270 0 min 0,0 UV-I 0 W/m 11,9 C 12,7 C 14,5 km/h (3 Bft)
23.06.2023 04:36 13,7 C 12,8 C 89 % 1020,3 hPa 0,0 l/m 16,1 km/h (3 Bft) W-SW 247 0 min 0,0 UV-I 0 W/m 11,9 C 9,2 C 19,3 km/h (3 Bft)
23.06.2023 04:37 13,7 C 12,8 C 89 % 1020,2 hPa 0,0 l/m 8,0 km/h (2 Bft) W-SW 247 0 min 0,0 UV-I 0 W/m 11,9 C 12,7 C 12,9 km/h (3 Bft)
23.06.2023 04:38 13,7 C 12,8 C 89 % 1020,3 hPa 0,0 l/m 11,3 km/h (2 Bft) W 270 0 min 0,0 UV-I 0 W/m 11,9 C 11,1 C 17,7 km/h (3 Bft)
23.06.2023 04:39 13,7 C 12,8 C 89 % 1020,3 hPa 0,0 l/m 11,3 km/h (2 Bft) W-SW 247 0 min 0,0 UV-I 0 W/m 11,9 C 11,1 C 14,5 km/h (3 Bft)
23.06.2023 04:40 13,7 C 12,8 C 89 % 1020,3 hPa 0,0 l/m 12,9 km/h (3 Bft) W 270 0 min 0,0 UV-I 0 W/m 11,9 C 10,4 C 17,7 km/h (3 Bft)
23.06.2023 04:41 13,6 C 12,8 C 89 % 1020,3 hPa 0,0 l/m 6,4 km/h (2 Bft) W-SW 247 0 min 0,0 UV-I 0 W/m 11,8 C 13,6 C 14,5 km/h (3 Bft)
23.06.2023 04:42 13,7 C 12,8 C 89 % 1020,3 hPa 0,0 l/m 6,4 km/h (2 Bft) W 270 0 min 0,0 UV-I 0 W/m 11,9 C 13,7 C 12,9 km/h (3 Bft)
23.06.2023 04:43 13,6 C 12,8 C 89 % 1020,4 hPa 0,0 l/m 9,7 km/h (2 Bft) W 270 0 min 0,0 UV-I 0 W/m 11,8 C 11,7 C 14,5 km/h (3 Bft)
23.06.2023 04:44 13,6 C 12,8 C 89 % 1020,3 hPa 0,0 l/m 11,3 km/h (2 Bft) W 270 0 min 0,0 UV-I 0 W/m 11,8 C 11,0 C 16,1 km/h (3 Bft)
23.06.2023 04:45 13,6 C 12,8 C 89 % 1020,4 hPa 0,0 l/m 12,9 km/h (3 Bft) W 270 0 min 0,0 UV-I 0 W/m 11,8 C 10,3 C 22,5 km/h (4 Bft)
23.06.2023 04:46 13,6 C 12,8 C 88 % 1020,4 hPa 0,0 l/m 16,1 km/h (3 Bft) W 270 0 min 0,0 UV-I 0 W/m 11,6 C 9,1 C 19,3 km/h (3 Bft)
23.06.2023 04:47 13,6 C 12,8 C 88 % 1020,4 hPa 0,0 l/m 11,3 km/h (2 Bft) W 270 0 min 0,0 UV-I 0 W/m 11,6 C 11,0 C 20,9 km/h (4 Bft)
23.06.2023 04:48 13,6 C 12,8 C 88 % 1020,4 hPa 0,0 l/m 11,3 km/h (2 Bft) W-SW 247 0 min 0,0 UV-I 0 W/m 11,6 C 11,0 C 16,1 km/h (3 Bft)
23.06.2023 04:49 13,5 C 12,8 C 88 % 1020,3 hPa 0,0 l/m 12,9 km/h (3 Bft) W 270 0 min 0,0 UV-I 0 W/m 11,6 C 10,2 C 19,3 km/h (3 Bft)
23.06.2023 04:50 13,5 C 12,8 C 88 % 1020,4 hPa 0,0 l/m 6,4 km/h (2 Bft) W-SW 247 0 min 0,0 UV-I 0 W/m 11,6 C 13,5 C 9,7 km/h (2 Bft)
23.06.2023 04:51 13,5 C 12,8 C 88 % 1020,3 hPa 0,0 l/m 11,3 km/h (2 Bft) W-SW 247 0 min 0,0 UV-I 0 W/m 11,6 C 10,9 C 16,1 km/h (3 Bft)
23.06.2023 04:52 13,5 C 12,8 C 88 % 1020,4 hPa 0,0 l/m 8,0 km/h (2 Bft) W-SW 247 0 min 0,0 UV-I 0 W/m 11,6 C 12,5 C 11,3 km/h (2 Bft)
23.06.2023 04:53 13,4 C 12,8 C 88 % 1020,3 hPa 0,0 l/m 11,3 km/h (2 Bft) W-SW 247 0 min 0,0 UV-I 0 W/m 11,5 C 10,7 C 16,1 km/h (3 Bft)
23.06.2023 04:54 13,4 C 12,2 C 88 % 1020,4 hPa 0,0 l/m 8,0 km/h (2 Bft) W-SW 247 0 min 0,0 UV-I 0 W/m 11,5 C 12,4 C 14,5 km/h (3 Bft)
23.06.2023 04:55 13,4 C 12,2 C 88 % 1020,5 hPa 0,0 l/m 8,0 km/h (2 Bft) W 270 0 min 0,0 UV-I 0 W/m 11,5 C 12,4 C 11,3 km/h (2 Bft)
23.06.2023 04:56 13,3 C 12,2 C 88 % 1020,3 hPa 0,0 l/m 11,3 km/h (2 Bft) W-SW 247 0 min 0,0 UV-I 0 W/m 11,4 C 10,6 C 17,7 km/h (3 Bft)
23.06.2023 04:57 13,3 C 12,2 C 88 % 1020,3 hPa 0,0 l/m 16,1 km/h (3 Bft) W 270 0 min 0,0 UV-I 0 W/m 11,4 C 8,7 C 24,1 km/h (4 Bft)
23.06.2023 04:58 13,3 C 12,2 C 88 % 1020,5 hPa 0,0 l/m 9,7 km/h (2 Bft) W-SW 247 0 min 0,0 UV-I 0 W/m 11,4 C 11,4 C 17,7 km/h (3 Bft)
23.06.2023 04:59 13,3 C 12,2 C 88 % 1020,4 hPa 0,0 l/m 8,0 km/h (2 Bft) W 270 0 min 0,0 UV-I 0 W/m 11,4 C 12,3 C 12,9 km/h (3 Bft)
23.06.2023 05:00 13,3 C 12,2 C 88 % 1020,4 hPa 0,0 l/m 12,9 km/h (3 Bft) W 270 0 min 0,0 UV-I 0 W/m 11,4 C 9,9 C 20,9 km/h (4 Bft)
23.06.2023 05:01 13,3 C 12,2 C 88 % 1020,5 hPa 0,0 l/m 6,4 km/h (2 Bft) W 270 0 min 0,0 UV-I 0 W/m 11,4 C 13,3 C 17,7 km/h (3 Bft)
23.06.2023 05:02 13,3 C 12,2 C 88 % 1020,5 hPa 0,0 l/m 8,0 km/h (2 Bft) W-SW 247 0 min 0,0 UV-I 0 W/m 11,4 C 12,3 C 11,3 km/h (2 Bft)
23.06.2023 05:03 13,2 C 12,2 C 88 % 1020,5 hPa 0,0 l/m 8,0 km/h (2 Bft) W 270 0 min 0,0 UV-I 0 W/m 11,3 C 12,2 C 11,3 km/h (2 Bft)
23.06.2023 05:04 13,2 C 12,2 C 88 % 1020,6 hPa 0,0 l/m 6,4 km/h (2 Bft) W-SW 247 0 min 0,0 UV-I 0 W/m 11,3 C 13,2 C 14,5 km/h (3 Bft)
23.06.2023 05:05 13,2 C 12,2 C 88 % 1020,5 hPa 0,0 l/m 8,0 km/h (2 Bft) W 270 0 min 0,0 UV-I 0 W/m 11,3 C 12,2 C 14,5 km/h (3 Bft)
23.06.2023 05:06 13,2 C 12,2 C 88 % 1020,5 hPa 0,0 l/m 9,7 km/h (2 Bft) SW 225 0 min 0,0 UV-I 0 W/m 11,3 C 11,3 C 12,9 km/h (3 Bft)
23.06.2023 05:07 13,2 C 12,2 C 88 % 1020,5 hPa 0,0 l/m 11,3 km/h (2 Bft) W 270 0 min 0,0 UV-I 0 W/m 11,3 C 10,5 C 16,1 km/h (3 Bft)
23.06.2023 05:08 13,2 C 12,2 C 88 % 1020,5 hPa 0,0 l/m 9,7 km/h (2 Bft) W-SW 247 0 min 0,0 UV-I 0 W/m 11,3 C 11,3 C 14,5 km/h (3 Bft)
23.06.2023 05:09 13,2 C 12,2 C 88 % 1020,6 hPa 0,0 l/m 6,4 km/h (2 Bft) SW 225 0 min 0,0 UV-I 0 W/m 11,3 C 13,2 C 11,3 km/h (2 Bft)
23.06.2023 05:10 13,2 C 12,2 C 88 % 1020,6 hPa 0,0 l/m 6,4 km/h (2 Bft) SW 225 0 min 0,0 UV-I 0 W/m 11,3 C 13,2 C 11,3 km/h (2 Bft)
23.06.2023 05:11 13,1 C 12,2 C 88 % 1020,5 hPa 0,0 l/m 8,0 km/h (2 Bft) W-SW 247 0 min 0,0 UV-I 0 W/m 11,2 C 12,1 C 14,5 km/h (3 Bft)
23.06.2023 05:12 13,1 C 11,7 C 88 % 1020,5 hPa 0,0 l/m 12,9 km/h (3 Bft) W-SW 247 0 min 0,0 UV-I 0 W/m 11,2 C 9,7 C 22,5 km/h (4 Bft)
23.06.2023 05:13 13,1 C 12,2 C 88 % 1020,6 hPa 0,0 l/m 9,7 km/h (2 Bft) W 270 0 min 0,0 UV-I 0 W/m 11,2 C 11,2 C 12,9 km/h (3 Bft)
23.06.2023 05:14 13,0 C 12,2 C 88 % 1020,6 hPa 0,0 l/m 14,5 km/h (3 Bft) W-SW 247 0 min 0,0 UV-I 0 W/m 11,1 C 9,0 C 24,1 km/h (4 Bft)
23.06.2023 05:15 13,0 C 12,2 C 88 % 1020,6 hPa 0,0 l/m 6,4 km/h (2 Bft) W 270 0 min 0,0 UV-I 0 W/m 11,1 C 13,0 C 11,3 km/h (2 Bft)
23.06.2023 05:16 13,0 C 12,2 C 88 % 1020,7 hPa 0,0 l/m 4,8 km/h (1 Bft) W 270 0 min 0,0 UV-I 0 W/m 11,1 C 13,0 C 8,0 km/h (2 Bft)
23.06.2023 05:17 13,0 C 12,2 C 88 % 1020,7 hPa 0,0 l/m 12,9 km/h (3 Bft) W-SW 247 0 min 0,0 UV-I 0 W/m 11,1 C 9,6 C 17,7 km/h (3 Bft)
23.06.2023 05:18 12,9 C 11,7 C 88 % 1020,6 hPa 0,0 l/m 12,9 km/h (3 Bft) W-SW 247 0 min 0,0 UV-I 0 W/m 11,0 C 9,5 C 17,7 km/h (3 Bft)
23.06.2023 05:19 12,9 C 12,2 C 88 % 1020,7 hPa 0,0 l/m 12,9 km/h (3 Bft) W-SW 247 0 min 0,0 UV-I 0 W/m 11,0 C 9,5 C 17,7 km/h (3 Bft)
23.06.2023 05:20 12,9 C 11,7 C 88 % 1020,7 hPa 0,0 l/m 8,0 km/h (2 Bft) W-SW 247 0 min 0,0 UV-I 0 W/m 11,0 C 11,9 C 11,3 km/h (2 Bft)
23.06.2023 05:21 12,9 C 11,7 C 88 % 1020,7 hPa 0,0 l/m 9,7 km/h (2 Bft) SW 225 0 min 0,0 UV-I 0 W/m 11,0 C 11,0 C 14,5 km/h (3 Bft)
23.06.2023 05:22 12,9 C 11,7 C 88 % 1020,7 hPa 0,0 l/m 8,0 km/h (2 Bft) SW 225 0 min 0,0 UV-I 0 W/m 11,0 C 11,9 C 14,5 km/h (3 Bft)
23.06.2023 05:23 12,9 C 11,7 C 88 % 1020,8 hPa 0,0 l/m 12,9 km/h (3 Bft) W 270 0 min 0,0 UV-I 0 W/m 11,0 C 9,5 C 20,9 km/h (4 Bft)
23.06.2023 05:24 12,9 C 11,7 C 88 % 1020,8 hPa 0,0 l/m 8,0 km/h (2 Bft) W 270 0 min 0,0 UV-I 0 W/m 11,0 C 11,9 C 16,1 km/h (3 Bft)
23.06.2023 05:25 12,9 C 11,7 C 88 % 1020,9 hPa 0,0 l/m 9,7 km/h (2 Bft) W-SW 247 0 min 0,0 UV-I 0 W/m 11,0 C 11,0 C 16,1 km/h (3 Bft)
23.06.2023 05:26 12,9 C 11,7 C 88 % 1020,8 hPa 0,0 l/m 12,9 km/h (3 Bft) W 270 0 min 0,0 UV-I 0 W/m 11,0 C 9,5 C 16,1 km/h (3 Bft)
23.06.2023 05:27 12,9 C 11,7 C 88 % 1020,8 hPa 0,0 l/m 8,0 km/h (2 Bft) W-SW 247 0 min 0,0 UV-I 0 W/m 11,0 C 11,9 C 14,5 km/h (3 Bft)
23.06.2023 05:28 12,9 C 11,7 C 88 % 1020,9 hPa 0,0 l/m 12,9 km/h (3 Bft) W-SW 247 0 min 0,0 UV-I 0 W/m 11,0 C 9,5 C 17,7 km/h (3 Bft)
23.06.2023 05:29 12,9 C 11,7 C 88 % 1020,8 hPa 0,0 l/m 9,7 km/h (2 Bft) W 270 0 min 0,0 UV-I 0 W/m 11,0 C 11,0 C 16,1 km/h (3 Bft)
23.06.2023 05:30 12,8 C 11,7 C 88 % 1020,9 hPa 0,0 l/m 9,7 km/h (2 Bft) W 270 0 min 0,0 UV-I 0 W/m 10,9 C 10,8 C 14,5 km/h (3 Bft)
23.06.2023 05:31 12,9 C 11,7 C 88 % 1021,0 hPa 0,0 l/m 9,7 km/h (2 Bft) SW 225 0 min 0,0 UV-I 0 W/m 11,0 C 11,0 C 17,7 km/h (3 Bft)
23.06.2023 05:32 12,8 C 11,7 C 88 % 1020,9 hPa 0,0 l/m 11,3 km/h (2 Bft) W 270 0 min 0,0 UV-I 0 W/m 10,9 C 10,1 C 14,5 km/h (3 Bft)
23.06.2023 05:33 12,8 C 11,7 C 88 % 1020,9 hPa 0,0 l/m 8,0 km/h (2 Bft) W-SW 247 0 min 0,0 UV-I 0 W/m 10,9 C 11,8 C 12,9 km/h (3 Bft)
23.06.2023 05:34 12,8 C 11,7 C 88 % 1021,0 hPa 0,0 l/m 4,8 km/h (1 Bft) W-SW 247 0 min 0,0 UV-I 0 W/m 10,9 C 12,8 C 9,7 km/h (2 Bft)
23.06.2023 05:35 12,8 C 11,7 C 88 % 1020,9 hPa 0,0 l/m 8,0 km/h (2 Bft) SW 225 0 min 0,0 UV-I 0 W/m 10,9 C 11,8 C 17,7 km/h (3 Bft)
23.06.2023 05:36 12,8 C 11,7 C 88 % 1021,0 hPa 0,0 l/m 4,8 km/h (1 Bft) W-SW 247 0 min 0,0 UV-I 0 W/m 10,9 C 12,8 C 11,3 km/h (2 Bft)
23.06.2023 05:37 12,7 C 11,7 C 88 % 1020,9 hPa 0,0 l/m 9,7 km/h (2 Bft) W 270 0 min 0,0 UV-I 5 W/m 10,8 C 10,7 C 14,5 km/h (3 Bft)
23.06.2023 05:38 12,7 C 11,7 C 88 % 1020,9 hPa 0,0 l/m 6,4 km/h (2 Bft) W 270 0 min 0,0 UV-I 5 W/m 10,8 C 12,7 C 9,7 km/h (2 Bft)
23.06.2023 05:39 12,7 C 11,7 C 88 % 1021,0 hPa 0,0 l/m 8,0 km/h (2 Bft) W-SW 247 0 min 0,0 UV-I 5 W/m 10,8 C 11,7 C 14,5 km/h (3 Bft)
23.06.2023 05:40 12,7 C 11,7 C 88 % 1021,0 hPa 0,0 l/m 4,8 km/h (1 Bft) W-SW 247 0 min 0,0 UV-I 5 W/m 10,8 C 12,7 C 11,3 km/h (2 Bft)
23.06.2023 05:41 12,7 C 11,7 C 88 % 1021,1 hPa 0,0 l/m 6,4 km/h (2 Bft) W-SW 247 0 min 0,0 UV-I 5 W/m 10,8 C 12,7 C 11,3 km/h (2 Bft)
23.06.2023 05:42 12,6 C 11,7 C 88 % 1021,0 hPa 0,0 l/m 6,4 km/h (2 Bft) W-SW 247 0 min 0,0 UV-I 5 W/m 10,7 C 12,6 C 11,3 km/h (2 Bft)
23.06.2023 05:43 12,6 C 11,7 C 88 % 1021,0 hPa 0,0 l/m 8,0 km/h (2 Bft) W 270 0 min 0,0 UV-I 5 W/m 10,7 C 11,6 C 16,1 km/h (3 Bft)
23.06.2023 05:44 12,6 C 11,7 C 89 % 1021,0 hPa 0,0 l/m 8,0 km/h (2 Bft) W 270 0 min 0,0 UV-I 7 W/m 10,8 C 11,6 C 12,9 km/h (3 Bft)
23.06.2023 05:45 12,6 C 11,7 C 89 % 1021,0 hPa 0,0 l/m 4,8 km/h (1 Bft) W 270 0 min 0,0 UV-I 7 W/m 10,8 C 12,6 C 8,0 km/h (2 Bft)
23.06.2023 05:46 12,6 C 11,7 C 89 % 1021,1 hPa 0,0 l/m 9,7 km/h (2 Bft) W 270 0 min 0,0 UV-I 7 W/m 10,8 C 10,6 C 14,5 km/h (3 Bft)
23.06.2023 05:47 12,6 C 11,7 C 89 % 1021,0 hPa 0,0 l/m 8,0 km/h (2 Bft) W-SW 247 0 min 0,0 UV-I 7 W/m 10,8 C 11,6 C 16,1 km/h (3 Bft)
23.06.2023 05:48 12,6 C 11,7 C 89 % 1021,1 hPa 0,0 l/m 9,7 km/h (2 Bft) W-SW 247 0 min 0,0 UV-I 9 W/m 10,8 C 10,6 C 12,9 km/h (3 Bft)
23.06.2023 05:49 12,6 C 11,7 C 89 % 1021,1 hPa 0,0 l/m 8,0 km/h (2 Bft) W 270 0 min 0,0 UV-I 9 W/m 10,8 C 11,6 C 12,9 km/h (3 Bft)
23.06.2023 05:50 12,6 C 11,7 C 89 % 1021,1 hPa 0,0 l/m 4,8 km/h (1 Bft) W 270 0 min 0,0 UV-I 9 W/m 10,8 C 12,6 C 8,0 km/h (2 Bft)
23.06.2023 05:51 12,6 C 11,7 C 89 % 1021,1 hPa 0,0 l/m 8,0 km/h (2 Bft) W-SW 247 0 min 0,0 UV-I 11 W/m 10,8 C 11,6 C 12,9 km/h (3 Bft)
23.06.2023 05:52 12,6 C 11,7 C 89 % 1021,1 hPa 0,0 l/m 6,4 km/h (2 Bft) W 270 0 min 0,0 UV-I 11 W/m 10,8 C 12,6 C 9,7 km/h (2 Bft)
23.06.2023 05:53 12,6 C 11,7 C 89 % 1021,1 hPa 0,0 l/m 9,7 km/h (2 Bft) SW 225 0 min 0,0 UV-I 11 W/m 10,8 C 10,6 C 12,9 km/h (3 Bft)
23.06.2023 05:54 12,6 C 11,7 C 89 % 1021,1 hPa 0,0 l/m 6,4 km/h (2 Bft) W-SW 247 0 min 0,0 UV-I 11 W/m 10,8 C 12,6 C 8,0 km/h (2 Bft)
23.06.2023 05:55 12,6 C 11,7 C 89 % 1021,1 hPa 0,0 l/m 4,8 km/h (1 Bft) W 270 0 min 0,0 UV-I 12 W/m 10,8 C 12,6 C 9,7 km/h (2 Bft)
23.06.2023 05:56 12,6 C 11,7 C 89 % 1021,1 hPa 0,0 l/m 4,8 km/h (1 Bft) SW 225 0 min 0,0 UV-I 12 W/m 10,8 C 12,6 C 8,0 km/h (2 Bft)
23.06.2023 05:57 12,5 C 11,7 C 89 % 1021,1 hPa 0,0 l/m 3,2 km/h (1 Bft) SW 225 0 min 0,0 UV-I 12 W/m 10,7 C 12,5 C 4,8 km/h (1 Bft)
23.06.2023 05:58 12,5 C 11,1 C 89 % 1021,0 hPa 0,0 l/m 3,2 km/h (1 Bft) SW 225 0 min 0,0 UV-I 14 W/m 10,7 C 12,5 C 6,4 km/h (2 Bft)
23.06.2023 05:59 12,5 C 11,1 C 89 % 1021,1 hPa 0,0 l/m 4,8 km/h (1 Bft) SW 225 0 min 0,0 UV-I 14 W/m 10,7 C 12,5 C 6,4 km/h (2 Bft)
23.06.2023 06:00 12,4 C 11,1 C 89 % 1021,2 hPa 0,0 l/m 4,8 km/h (1 Bft) W-SW 247 0 min 0,0 UV-I 14 W/m 10,6 C 12,4 C 8,0 km/h (2 Bft)
23.06.2023 06:01 12,5 C 11,1 C 89 % 1021,1 hPa 0,0 l/m 4,8 km/h (1 Bft) SW 225 0 min 0,0 UV-I 16 W/m 10,7 C 12,5 C 8,0 km/h (2 Bft)
23.06.2023 06:02 12,4 C 11,1 C 89 % 1021,0 hPa 0,0 l/m 6,4 km/h (2 Bft) W 270 0 min 0,0 UV-I 16 W/m 10,6 C 12,4 C 11,3 km/h (2 Bft)
23.06.2023 06:03 12,4 C 11,1 C 89 % 1021,1 hPa 0,0 l/m 4,8 km/h (1 Bft) W 270 0 min 0,0 UV-I 18 W/m 10,6 C 12,4 C 8,0 km/h (2 Bft)
23.06.2023 06:04 12,4 C 11,1 C 89 % 1021,1 hPa 0,0 l/m 6,4 km/h (2 Bft) W-SW 247 0 min 0,0 UV-I 18 W/m 10,6 C 12,4 C 8,0 km/h (2 Bft)
23.06.2023 06:05 12,4 C 11,7 C 89 % 1021,2 hPa 0,0 l/m 4,8 km/h (1 Bft) W-SW 247 0 min 0,0 UV-I 18 W/m 10,6 C 12,4 C 9,7 km/h (2 Bft)
23.06.2023 06:06 12,4 C 11,7 C 89 % 1021,2 hPa 0,0 l/m 4,8 km/h (1 Bft) W 270 0 min 0,0 UV-I 19 W/m 10,6 C 12,4 C 9,7 km/h (2 Bft)
23.06.2023 06:07 12,4 C 11,7 C 89 % 1021,2 hPa 0,0 l/m 3,2 km/h (1 Bft) W 270 0 min 0,0 UV-I 21 W/m 10,6 C 12,4 C 3,2 km/h (1 Bft)
23.06.2023 06:08 12,4 C 11,1 C 89 % 1021,3 hPa 0,0 l/m 3,2 km/h (1 Bft) W 270 0 min 0,0 UV-I 23 W/m 10,6 C 12,4 C 4,8 km/h (1 Bft)
23.06.2023 06:09 12,4 C 11,1 C 89 % 1021,3 hPa 0,0 l/m 3,2 km/h (1 Bft) W 270 0 min 0,0 UV-I 25 W/m 10,6 C 12,4 C 6,4 km/h (2 Bft)
23.06.2023 06:10 12,4 C 11,7 C 89 % 1021,3 hPa 0,0 l/m 3,2 km/h (1 Bft) W 270 0 min 0,0 UV-I 28 W/m 10,6 C 12,4 C 8,0 km/h (2 Bft)
23.06.2023 06:11 12,5 C 11,7 C 89 % 1021,3 hPa 0,0 l/m 4,8 km/h (1 Bft) W 270 0 min 0,0 UV-I 25 W/m 10,7 C 12,5 C 6,4 km/h (2 Bft)
23.06.2023 06:12 12,6 C 11,7 C 90 % 1021,3 hPa 0,0 l/m 3,2 km/h (1 Bft) W 270 0 min 0,0 UV-I 26 W/m 11,0 C 12,6 C 4,8 km/h (1 Bft)
23.06.2023 06:13 12,6 C 11,7 C 89 % 1021,4 hPa 0,0 l/m 3,2 km/h (1 Bft) W 270 0 min 0,0 UV-I 18 W/m 10,8 C 12,6 C 9,7 km/h (2 Bft)
23.06.2023 06:14 12,6 C 11,7 C 89 % 1021,2 hPa 0,0 l/m 4,8 km/h (1 Bft) W 270 0 min 0,0 UV-I 18 W/m 10,8 C 12,6 C 6,4 km/h (2 Bft)
23.06.2023 06:15 12,6 C 11,7 C 89 % 1021,4 hPa 0,0 l/m 4,8 km/h (1 Bft) W-SW 247 0 min 0,0 UV-I 18 W/m 10,8 C 12,6 C 6,4 km/h (2 Bft)
23.06.2023 06:16 12,6 C 11,7 C 90 % 1021,3 hPa 0,0 l/m 4,8 km/h (1 Bft) SW 225 0 min 0,0 UV-I 16 W/m 11,0 C 12,6 C 9,7 km/h (2 Bft)
23.06.2023 06:17 12,7 C 11,7 C 90 % 1021,3 hPa 0,0 l/m 3,2 km/h (1 Bft) SW 225 0 min 0,0 UV-I 14 W/m 11,1 C 12,7 C 4,8 km/h (1 Bft)
23.06.2023 06:18 12,7 C 11,7 C 90 % 1021,3 hPa 0,0 l/m 3,2 km/h (1 Bft) SW 225 0 min 0,0 UV-I 12 W/m 11,1 C 12,7 C 6,4 km/h (2 Bft)
23.06.2023 06:19 12,7 C 12,2 C 90 % 1021,4 hPa 0,0 l/m 3,2 km/h (1 Bft) W-SW 247 0 min 0,0 UV-I 9 W/m 11,1 C 12,7 C 4,8 km/h (1 Bft)
23.06.2023 06:20 12,8 C 12,2 C 90 % 1021,4 hPa 0,0 l/m 1,6 km/h (1 Bft) W-SW 247 0 min 0,0 UV-I 9 W/m 11,2 C 12,8 C 4,8 km/h (1 Bft)
23.06.2023 06:21 12,7 C 12,2 C 90 % 1021,3 hPa 0,0 l/m 3,2 km/h (1 Bft) W-SW 247 0 min 0,0 UV-I 9 W/m 11,1 C 12,7 C 4,8 km/h (1 Bft)
23.06.2023 06:22 12,8 C 12,2 C 90 % 1021,4 hPa 0,0 l/m 3,2 km/h (1 Bft) W-SW 247 0 min 0,0 UV-I 11 W/m 11,2 C 12,8 C 3,2 km/h (1 Bft)
23.06.2023 06:23 12,8 C 12,2 C 90 % 1021,4 hPa 0,0 l/m 3,2 km/h (1 Bft) W-SW 247 0 min 0,0 UV-I 9 W/m 11,2 C 12,8 C 4,8 km/h (1 Bft)
23.06.2023 06:24 12,8 C 12,2 C 90 % 1021,4 hPa 0,0 l/m 3,2 km/h (1 Bft) W-SW 247 0 min 0,0 UV-I 7 W/m 11,2 C 12,8 C 4,8 km/h (1 Bft)
23.06.2023 06:25 12,9 C 12,2 C 90 % 1021,4 hPa 0,0 l/m 3,2 km/h (1 Bft) W-SW 247 0 min 0,0 UV-I 7 W/m 11,3 C 12,9 C 4,8 km/h (1 Bft)
23.06.2023 06:26 12,9 C 12,8 C 90 % 1021,4 hPa 0,0 l/m 1,6 km/h (1 Bft) W-SW 247 0 min 0,0 UV-I 9 W/m 11,3 C 12,9 C 3,2 km/h (1 Bft)
23.06.2023 06:27 12,9 C 12,8 C 90 % 1021,4 hPa 0,0 l/m 1,6 km/h (1 Bft) W-SW 247 0 min 0,0 UV-I 9 W/m 11,3 C 12,9 C 3,2 km/h (1 Bft)
23.06.2023 06:28 13,0 C 12,8 C 90 % 1021,5 hPa 0,0 l/m 1,6 km/h (1 Bft) W-SW 247 0 min 0,0 UV-I 9 W/m 11,4 C 13,0 C 3,2 km/h (1 Bft)
23.06.2023 06:29 13,0 C 12,8 C 90 % 1021,5 hPa 0,0 l/m 3,2 km/h (1 Bft) W-SW 247 0 min 0,0 UV-I 11 W/m 11,4 C 13,0 C 4,8 km/h (1 Bft)
23.06.2023 06:30 13,0 C 12,8 C 90 % 1021,6 hPa 0,0 l/m 3,2 km/h (1 Bft) W-SW 247 0 min 0,0 UV-I 12 W/m 11,4 C 13,0 C 6,4 km/h (2 Bft)
23.06.2023 06:31 13,1 C 12,8 C 90 % 1021,6 hPa 0,0 l/m 3,2 km/h (1 Bft) W-SW 247 0 min 0,0 UV-I 12 W/m 11,5 C 13,1 C 3,2 km/h (1 Bft)
23.06.2023 06:32 13,1 C 12,8 C 90 % 1021,6 hPa 0,0 l/m 3,2 km/h (1 Bft) W-SW 247 0 min 0,0 UV-I 14 W/m 11,5 C 13,1 C 4,8 km/h (1 Bft)
23.06.2023 06:33 13,1 C 12,8 C 90 % 1021,6 hPa 0,0 l/m 1,6 km/h (1 Bft) W-SW 247 0 min 0,0 UV-I 16 W/m 11,5 C 13,1 C 3,2 km/h (1 Bft)
23.06.2023 06:34 13,1 C 12,8 C 90 % 1021,6 hPa 0,0 l/m 6,4 km/h (2 Bft) W-SW 247 0 min 0,0 UV-I 16 W/m 11,5 C 13,1 C 8,0 km/h (2 Bft)
23.06.2023 06:35 13,2 C 12,8 C 90 % 1021,6 hPa 0,0 l/m 4,8 km/h (1 Bft) SW 225 0 min 0,0 UV-I 14 W/m 11,6 C 13,2 C 8,0 km/h (2 Bft)
23.06.2023 06:36 13,2 C 12,8 C 90 % 1021,7 hPa 0,0 l/m 4,8 km/h (1 Bft) W-SW 247 0 min 0,0 UV-I 16 W/m 11,6 C 13,2 C 8,0 km/h (2 Bft)
23.06.2023 06:37 13,2 C 12,8 C 90 % 1021,6 hPa 0,0 l/m 3,2 km/h (1 Bft) W-SW 247 0 min 0,0 UV-I 15 W/m 11,6 C 13,2 C 6,4 km/h (2 Bft)
23.06.2023 06:38 13,2 C 12,8 C 90 % 1021,6 hPa 0,0 l/m 4,8 km/h (1 Bft) W-SW 247 0 min 0,0 UV-I 16 W/m 11,6 C 13,2 C 6,4 km/h (2 Bft)
23.06.2023 06:39 13,2 C 12,8 C 90 % 1021,6 hPa 0,0 l/m 6,4 km/h (2 Bft) W-SW 247 0 min 0,0 UV-I 18 W/m 11,6 C 13,2 C 9,7 km/h (2 Bft)
23.06.2023 06:40 13,3 C 12,8 C 90 % 1021,6 hPa 0,0 l/m 4,8 km/h (1 Bft) SW 225 0 min 0,0 UV-I 21 W/m 11,7 C 13,3 C 9,7 km/h (2 Bft)
23.06.2023 06:41 13,3 C 12,8 C 90 % 1021,7 hPa 0,0 l/m 6,4 km/h (2 Bft) W 270 0 min 0,0 UV-I 26 W/m 11,7 C 13,3 C 11,3 km/h (2 Bft)
23.06.2023 06:42 13,3 C 13,3 C 90 % 1021,7 hPa 0,0 l/m 6,4 km/h (2 Bft) SW 225 0 min 0,0 UV-I 26 W/m 11,7 C 13,3 C 9,7 km/h (2 Bft)
23.06.2023 06:43 13,3 C 13,3 C 90 % 1021,6 hPa 0,0 l/m 8,0 km/h (2 Bft) W-SW 247 0 min 0,0 UV-I 28 W/m 11,7 C 12,3 C 11,3 km/h (2 Bft)
23.06.2023 06:44 13,3 C 13,3 C 90 % 1021,7 hPa 0,0 l/m 6,4 km/h (2 Bft) SW 225 0 min 0,0 UV-I 25 W/m 11,7 C 13,3 C 11,3 km/h (2 Bft)
23.06.2023 06:45 13,3 C 13,3 C 90 % 1021,6 hPa 0,0 l/m 4,8 km/h (1 Bft) W-SW 247 0 min 0,0 UV-I 21 W/m 11,7 C 13,3 C 8,0 km/h (2 Bft)
23.06.2023 06:46 13,4 C 13,3 C 90 % 1021,7 hPa 0,0 l/m 3,2 km/h (1 Bft) SW 225 0 min 0,0 UV-I 23 W/m 11,8 C 13,4 C 4,8 km/h (1 Bft)
23.06.2023 06:47 13,4 C 13,3 C 90 % 1021,6 hPa 0,0 l/m 4,8 km/h (1 Bft) SW 225 0 min 0,0 UV-I 26 W/m 11,8 C 13,4 C 9,7 km/h (2 Bft)
23.06.2023 06:48 13,5 C 13,3 C 90 % 1021,7 hPa 0,0 l/m 4,8 km/h (1 Bft) W 270 0 min 0,0 UV-I 30 W/m 11,9 C 13,5 C 9,7 km/h (2 Bft)
23.06.2023 06:51 13,6 C 13,3 C 90 % 1021,7 hPa 0,0 l/m 5,4 km/h (1 Bft) W-SW 252 0 min 0,0 UV-I 37 W/m 12,0 C 13,6 C 8,0 km/h (2 Bft)
23.06.2023 06:54 13,6 C 13,3 C 90 % 1021,8 hPa 0,0 l/m 4,9 km/h (1 Bft) SW 221 0 min 0,0 UV-I 35 W/m 12,0 C 13,6 C 9,7 km/h (2 Bft)
23.06.2023 06:57 13,7 C 13,3 C 90 % 1021,8 hPa 0,0 l/m 3,9 km/h (1 Bft) W-NW 293 0 min 0,0 UV-I 36 W/m 12,1 C 13,7 C 8,0 km/h (2 Bft)
23.06.2023 07:00 13,8 C 13,9 C 89 % 1021,9 hPa 0,0 l/m 3,1 km/h (1 Bft) W 268 0 min 0,0 UV-I 34 W/m 12,0 C 13,8 C 6,4 km/h (2 Bft)
23.06.2023 07:01 13,8 C 13,9 C 89 % 1021,9 hPa 0,0 l/m 1,6 km/h (1 Bft) W 270 0 min 0,0 UV-I 49 W/m 12,0 C 13,8 C 4,8 km/h (1 Bft)
23.06.2023 07:03 13,8 C 13,9 C 89 % 1021,8 hPa 0,0 l/m 5,1 km/h (1 Bft) W-SW 250 0 min 0,0 UV-I 58 W/m 12,0 C 13,8 C 12,9 km/h (3 Bft)
23.06.2023 07:06 13,9 C 13,9 C 89 % 1021,8 hPa 0,0 l/m 6,6 km/h (2 Bft) W-SW 248 0 min 0,0 UV-I 66 W/m 12,1 C 13,8 C 11,3 km/h (2 Bft)
23.06.2023 07:09 13,9 C 13,9 C 89 % 1021,8 hPa 0,0 l/m 5,8 km/h (2 Bft) SW 231 0 min 0,0 UV-I 71 W/m 12,1 C 13,9 C 12,9 km/h (3 Bft)
23.06.2023 07:12 13,9 C 13,9 C 89 % 1021,9 hPa 0,0 l/m 5,5 km/h (1 Bft) W-SW 242 0 min 0,3 UV-I 72 W/m 12,1 C 13,9 C 11,3 km/h (2 Bft)
23.06.2023 07:15 13,9 C 13,9 C 89 % 1021,9 hPa 0,0 l/m 7,9 km/h (2 Bft) W 277 0 min 0,5 UV-I 85 W/m 12,1 C 13,0 C 22,5 km/h (4 Bft)
23.06.2023 07:18 14,1 C 13,9 C 89 % 1022,0 hPa 0,0 l/m 4,7 km/h (1 Bft) W-SW 256 0 min 0,5 UV-I 137 W/m 12,3 C 14,1 C 11,3 km/h (2 Bft)
23.06.2023 07:21 14,2 C 14,4 C 89 % 1022,0 hPa 0,0 l/m 3,5 km/h (1 Bft) W-SW 237 0 min 0,5 UV-I 144 W/m 12,4 C 14,2 C 8,0 km/h (2 Bft)
23.06.2023 07:24 14,3 C 15,0 C 88 % 1021,9 hPa 0,0 l/m 4,8 km/h (1 Bft) W-SW 252 3 min 0,6 UV-I 150 W/m 12,3 C 14,3 C 9,7 km/h (2 Bft)
23.06.2023 07:27 14,4 C 15,6 C 88 % 1021,9 hPa 0,0 l/m 4,0 km/h (1 Bft) W 279 3 min 0,6 UV-I 171 W/m 12,4 C 14,4 C 6,4 km/h (2 Bft)
23.06.2023 07:30 14,6 C 15,6 C 88 % 1022,0 hPa 0,0 l/m 5,0 km/h (1 Bft) W 266 3 min 0,6 UV-I 171 W/m 12,6 C 14,6 C 12,9 km/h (3 Bft)
23.06.2023 07:33 14,7 C 15,6 C 88 % 1022,0 hPa 0,0 l/m 3,4 km/h (1 Bft) NW 309 3 min 0,6 UV-I 168 W/m 12,7 C 14,7 C 6,4 km/h (2 Bft)
23.06.2023 07:36 14,8 C 16,1 C 87 % 1022,0 hPa 0,0 l/m 2,6 km/h (1 Bft) W-NW 289 3 min 0,7 UV-I 217 W/m 12,7 C 14,8 C 4,8 km/h (1 Bft)
23.06.2023 07:39 14,9 C 16,1 C 87 % 1022,1 hPa 0,0 l/m 4,0 km/h (1 Bft) SW 217 3 min 0,7 UV-I 202 W/m 12,8 C 14,9 C 9,7 km/h (2 Bft)
23.06.2023 07:42 15,0 C 16,1 C 87 % 1022,2 hPa 0,0 l/m 4,7 km/h (1 Bft) W-SW 238 3 min 0,7 UV-I 180 W/m 12,9 C 15,0 C 12,9 km/h (3 Bft)
23.06.2023 07:45 15,0 C 16,1 C 86 % 1022,2 hPa 0,0 l/m 7,2 km/h (2 Bft) W-NW 297 3 min 0,6 UV-I 180 W/m 12,7 C 14,5 C 12,9 km/h (3 Bft)
23.06.2023 07:48 15,0 C 16,1 C 86 % 1022,1 hPa 0,0 l/m 6,9 km/h (2 Bft) W-SW 257 3 min 0,8 UV-I 233 W/m 12,7 C 14,7 C 12,9 km/h (3 Bft)
23.06.2023 07:51 15,2 C 16,1 C 86 % 1022,2 hPa 0,0 l/m 7,2 km/h (2 Bft) W 261 3 min 0,9 UV-I 272 W/m 12,9 C 14,8 C 12,9 km/h (3 Bft)
23.06.2023 07:54 15,3 C 16,1 C 86 % 1022,2 hPa 0,0 l/m 3,9 km/h (1 Bft) W-NW 296 0 min 0,8 UV-I 187 W/m 13,0 C 15,3 C 6,4 km/h (2 Bft)
23.06.2023 07:57 15,1 C 15,6 C 85 % 1022,2 hPa 0,0 l/m 6,2 km/h (2 Bft) W-SW 257 0 min 0,8 UV-I 140 W/m 12,6 C 15,1 C 17,7 km/h (3 Bft)
23.06.2023 08:00 15,1 C 15,6 C 85 % 1022,1 hPa 0,0 l/m 8,3 km/h (2 Bft) W 271 0 min 0,7 UV-I 105 W/m 12,6 C 14,0 C 14,5 km/h (3 Bft)
23.06.2023 08:03 14,9 C 15,6 C 86 % 1022,2 hPa 0,0 l/m 6,1 km/h (2 Bft) W-SW 252 0 min 0,8 UV-I 122 W/m 12,6 C 14,9 C 11,3 km/h (2 Bft)
23.06.2023 08:06 14,9 C 15,0 C 86 % 1022,3 hPa 0,0 l/m 7,5 km/h (2 Bft) W-NW 286 0 min 0,8 UV-I 106 W/m 12,6 C 14,3 C 16,1 km/h (3 Bft)
23.06.2023 08:09 14,8 C 15,6 C 86 % 1022,2 hPa 0,0 l/m 6,8 km/h (2 Bft) W-SW 248 0 min 0,9 UV-I 136 W/m 12,5 C 14,6 C 14,5 km/h (3 Bft)
23.06.2023 08:12 14,9 C 15,6 C 86 % 1022,3 hPa 0,0 l/m 6,1 km/h (2 Bft) W-NW 302 0 min 0,8 UV-I 160 W/m 12,6 C 14,9 C 12,9 km/h (3 Bft)
23.06.2023 08:15 15,0 C 16,1 C 86 % 1022,4 hPa 0,0 l/m 3,6 km/h (1 Bft) W 277 0 min 1,0 UV-I 153 W/m 12,7 C 15,0 C 11,3 km/h (2 Bft)
23.06.2023 08:18 15,2 C 16,1 C 86 % 1022,5 hPa 0,0 l/m 7,2 km/h (2 Bft) W-SW 244 3 min 1,2 UV-I 230 W/m 12,9 C 14,8 C 14,5 km/h (3 Bft)
23.06.2023 08:21 15,2 C 16,1 C 85 % 1022,6 hPa 0,0 l/m 9,4 km/h (2 Bft) W 266 0 min 1,0 UV-I 178 W/m 12,7 C 13,6 C 17,7 km/h (3 Bft)
23.06.2023 08:24 15,3 C 16,1 C 86 % 1022,7 hPa 0,0 l/m 4,7 km/h (1 Bft) W 263 0 min 1,0 UV-I 172 W/m 13,0 C 15,3 C 12,9 km/h (3 Bft)
23.06.2023 08:27 15,4 C 16,7 C 86 % 1022,7 hPa 0,0 l/m 5,9 km/h (2 Bft) W 266 3 min 1,2 UV-I 342 W/m 13,1 C 15,4 C 12,9 km/h (3 Bft)
23.06.2023 08:30 15,4 C 16,1 C 85 % 1022,7 hPa 0,0 l/m 8,0 km/h (2 Bft) SW 215 0 min 1,1 UV-I 155 W/m 12,9 C 14,5 C 20,9 km/h (4 Bft)
23.06.2023 08:33 15,3 C 16,1 C 85 % 1022,7 hPa 0,0 l/m 8,6 km/h (2 Bft) W 261 0 min 1,0 UV-I 122 W/m 12,8 C 14,1 C 17,7 km/h (3 Bft)
23.06.2023 08:36 15,2 C 16,1 C 84 % 1022,8 hPa 0,0 l/m 8,6 km/h (2 Bft) W 277 0 min 1,2 UV-I 171 W/m 12,5 C 14,0 C 19,3 km/h (3 Bft)
23.06.2023 08:39 15,2 C 16,1 C 84 % 1022,8 hPa 0,0 l/m 9,4 km/h (2 Bft) N 350 0 min 1,3 UV-I 139 W/m 12,5 C 13,6 C 16,1 km/h (3 Bft)
23.06.2023 08:42 15,5 C 16,1 C 85 % 1022,9 hPa 0,0 l/m 4,3 km/h (1 Bft) W 261 3 min 1,5 UV-I 350 W/m 13,0 C 15,5 C 11,3 km/h (2 Bft)
23.06.2023 08:45 15,6 C 16,7 C 84 % 1023,0 hPa 0,0 l/m 5,9 km/h (2 Bft) N-NW 328 3 min 1,4 UV-I 280 W/m 12,9 C 15,6 C 16,1 km/h (3 Bft)
23.06.2023 08:48 15,8 C 17,2 C 84 % 1023,0 hPa 0,0 l/m 3,0 km/h (1 Bft) W-NW 283 3 min 1,2 UV-I 274 W/m 13,1 C 15,8 C 6,4 km/h (2 Bft)
23.06.2023 08:51 15,9 C 17,2 C 83 % 1023,0 hPa 0,0 l/m 4,8 km/h (1 Bft) W-NW 295 0 min 1,2 UV-I 236 W/m 13,0 C 15,9 C 12,9 km/h (3 Bft)
23.06.2023 08:54 15,8 C 17,2 C 84 % 1023,2 hPa 0,0 l/m 5,1 km/h (1 Bft) S-SW 209 0 min 1,2 UV-I 180 W/m 13,1 C 15,8 C 11,3 km/h (2 Bft)
23.06.2023 08:57 15,7 C 16,7 C 83 % 1023,1 hPa 0,0 l/m 10,2 km/h (2 Bft) W-SW 246 0 min 1,7 UV-I 218 W/m 12,8 C 13,8 C 24,1 km/h (4 Bft)
23.06.2023 09:00 15,7 C 16,7 C 83 % 1023,1 hPa 0,0 l/m 5,6 km/h (1 Bft) SW 217 0 min 1,5 UV-I 238 W/m 12,8 C 15,7 C 19,3 km/h (3 Bft)
23.06.2023 09:03 15,8 C 17,2 C 83 % 1023,1 hPa 0,0 l/m 7,3 km/h (2 Bft) NW 315 3 min 1,8 UV-I 450 W/m 12,9 C 15,3 C 14,5 km/h (3 Bft)
23.06.2023 09:06 15,9 C 17,2 C 83 % 1023,1 hPa 0,0 l/m 8,1 km/h (2 Bft) W 273 3 min 2,0 UV-I 328 W/m 13,0 C 15,0 C 19,3 km/h (3 Bft)
23.06.2023 09:09 16,1 C 17,2 C 83 % 1023,3 hPa 0,0 l/m 9,6 km/h (2 Bft) W-SW 252 3 min 2,1 UV-I 533 W/m 13,2 C 14,5 C 20,9 km/h (4 Bft)
23.06.2023 09:12 15,9 C 17,2 C 82 % 1023,3 hPa 0,0 l/m 7,9 km/h (2 Bft) W-NW 282 3 min 1,8 UV-I 319 W/m 12,8 C 15,1 C 12,9 km/h (3 Bft)
23.06.2023 09:15 15,9 C 17,2 C 82 % 1023,3 hPa 0,0 l/m 5,4 km/h (1 Bft) W 281 0 min 1,7 UV-I 255 W/m 12,8 C 15,9 C 16,1 km/h (3 Bft)
23.06.2023 09:18 16,0 C 17,2 C 82 % 1023,3 hPa 0,0 l/m 6,8 km/h (2 Bft) W 279 0 min 1,6 UV-I 225 W/m 12,9 C 15,8 C 14,5 km/h (3 Bft)
23.06.2023 09:21 15,9 C 17,2 C 82 % 1023,4 hPa 0,0 l/m 3,8 km/h (1 Bft) W-SW 251 0 min 2,1 UV-I 265 W/m 12,8 C 15,9 C 9,7 km/h (2 Bft)
23.06.2023 09:24 16,1 C 17,2 C 82 % 1023,4 hPa 0,0 l/m 8,0 km/h (2 Bft) N-NW 332 3 min 2,3 UV-I 547 W/m 13,0 C 15,3 C 16,1 km/h (3 Bft)
23.06.2023 09:27 16,3 C 17,8 C 81 % 1023,4 hPa 0,0 l/m 5,7 km/h (1 Bft) NW 306 3 min 2,7 UV-I 583 W/m 13,0 C 16,3 C 14,5 km/h (3 Bft)
23.06.2023 09:30 16,8 C 18,9 C 81 % 1023,3 hPa 0,0 l/m 7,8 km/h (2 Bft) NW 315 3 min 2,7 UV-I 629 W/m 13,5 C 16,1 C 16,1 km/h (3 Bft)
23.06.2023 09:33 17,1 C 18,9 C 80 % 1023,4 hPa 0,0 l/m 8,2 km/h (2 Bft) NW 325 3 min 2,6 UV-I 636 W/m 13,6 C 16,2 C 17,7 km/h (3 Bft)
23.06.2023 09:36 16,9 C 18,9 C 81 % 1023,5 hPa 0,0 l/m 8,2 km/h (2 Bft) W-SW 245 3 min 2,2 UV-I 520 W/m 13,6 C 16,0 C 17,7 km/h (3 Bft)
23.06.2023 09:39 16,6 C 18,3 C 80 % 1023,5 hPa 0,0 l/m 7,9 km/h (2 Bft) W 275 3 min 2,5 UV-I 357 W/m 13,1 C 15,8 C 16,1 km/h (3 Bft)
23.06.2023 09:42 16,5 C 17,8 C 80 % 1023,5 hPa 0,0 l/m 9,0 km/h (2 Bft) W-SW 248 3 min 1,8 UV-I 413 W/m 13,0 C 15,2 C 19,3 km/h (3 Bft)
23.06.2023 09:45 16,2 C 16,7 C 80 % 1023,6 hPa 0,0 l/m 9,8 km/h (2 Bft) W-SW 242 0 min 1,7 UV-I 181 W/m 12,7 C 14,5 C 20,9 km/h (4 Bft)
23.06.2023 09:48 16,1 C 16,7 C 81 % 1023,6 hPa 0,0 l/m 6,0 km/h (2 Bft) W 269 0 min 1,7 UV-I 150 W/m 12,8 C 16,1 C 14,5 km/h (3 Bft)
23.06.2023 09:51 16,1 C 16,7 C 81 % 1023,6 hPa 0,0 l/m 4,2 km/h (1 Bft) N-NW 340 0 min 2,1 UV-I 132 W/m 12,8 C 16,1 C 19,3 km/h (3 Bft)
23.06.2023 09:54 16,3 C 17,2 C 80 % 1023,7 hPa 0,0 l/m 6,1 km/h (2 Bft) W-SW 238 3 min 3,1 UV-I 462 W/m 12,8 C 16,3 C 17,7 km/h (3 Bft)
23.06.2023 09:57 16,5 C 17,2 C 80 % 1023,8 hPa 0,0 l/m 6,1 km/h (2 Bft) W 260 3 min 2,9 UV-I 417 W/m 13,0 C 16,5 C 16,1 km/h (3 Bft)
23.06.2023 10:00 16,7 C 17,8 C 80 % 1023,7 hPa 0,0 l/m 9,0 km/h (2 Bft) SW 228 3 min 3,3 UV-I 477 W/m 13,2 C 15,4 C 19,3 km/h (3 Bft)
23.06.2023 10:03 16,8 C 17,2 C 78 % 1023,7 hPa 0,0 l/m 10,0 km/h (2 Bft) N-NW 334 0 min 2,4 UV-I 322 W/m 12,9 C 15,1 C 20,9 km/h (4 Bft)
23.06.2023 10:06 16,9 C 17,8 C 78 % 1023,8 hPa 0,0 l/m 6,1 km/h (2 Bft) W-SW 252 3 min 2,6 UV-I 400 W/m 13,0 C 16,9 C 16,1 km/h (3 Bft)
23.06.2023 10:09 17,3 C 18,3 C 78 % 1023,7 hPa 0,0 l/m 5,0 km/h (1 Bft) W-NW 292 3 min 1,8 UV-I 520 W/m 13,4 C 17,3 C 14,5 km/h (3 Bft)
23.06.2023 10:12 17,4 C 18,3 C 78 % 1024,0 hPa 0,0 l/m 6,9 km/h (2 Bft) NW 325 0 min 3,3 UV-I 294 W/m 13,5 C 17,2 C 17,7 km/h (3 Bft)
23.06.2023 10:15 17,5 C 18,9 C 78 % 1023,9 hPa 0,0 l/m 4,9 km/h (1 Bft) W-SW 254 3 min 3,5 UV-I 631 W/m 13,6 C 17,5 C 12,9 km/h (3 Bft)
23.06.2023 10:18 17,3 C 18,3 C 77 % 1023,9 hPa 0,0 l/m 9,0 km/h (2 Bft) W 268 0 min 2,2 UV-I 264 W/m 13,2 C 16,1 C 16,1 km/h (3 Bft)
23.06.2023 10:21 16,9 C 17,8 C 76 % 1024,0 hPa 0,0 l/m 8,3 km/h (2 Bft) W-NW 288 0 min 3,0 UV-I 319 W/m 12,6 C 16,0 C 16,1 km/h (3 Bft)
23.06.2023 10:24 17,1 C 17,8 C 77 % 1023,9 hPa 0,0 l/m 7,6 km/h (2 Bft) W 268 3 min 2,4 UV-I 512 W/m 13,0 C 16,5 C 14,5 km/h (3 Bft)
23.06.2023 10:27 17,3 C 18,3 C 76 % 1024,0 hPa 0,0 l/m 8,8 km/h (2 Bft) W-SW 257 3 min 2,7 UV-I 390 W/m 13,0 C 16,2 C 19,3 km/h (3 Bft)
23.06.2023 10:30 17,4 C 18,3 C 75 % 1024,1 hPa 0,0 l/m 9,5 km/h (2 Bft) W-SW 244 0 min 3,5 UV-I 151 W/m 12,9 C 16,0 C 19,3 km/h (3 Bft)
23.06.2023 10:33 17,7 C 18,9 C 73 % 1024,1 hPa 0,0 l/m 10,4 km/h (2 Bft) W-NW 284 0 min 3,3 UV-I 151 W/m 12,8 C 15,9 C 24,1 km/h (4 Bft)
23.06.2023 10:36 17,7 C 18,9 C 73 % 1024,2 hPa 0,0 l/m 8,5 km/h (2 Bft) NW 316 3 min 4,0 UV-I 564 W/m 12,8 C 16,7 C 19,3 km/h (3 Bft)
23.06.2023 10:39 18,2 C 19,4 C 75 % 1024,1 hPa 0,0 l/m 7,1 km/h (2 Bft) W-NW 298 3 min 4,2 UV-I 684 W/m 13,7 C 17,9 C 14,5 km/h (3 Bft)
23.06.2023 10:42 18,3 C 20,0 C 73 % 1024,2 hPa 0,0 l/m 9,5 km/h (2 Bft) SW 216 3 min 4,4 UV-I 732 W/m 13,4 C 17,0 C 17,7 km/h (3 Bft)
23.06.2023 10:45 18,3 C 20,0 C 73 % 1024,2 hPa 0,0 l/m 3,9 km/h (1 Bft) W 275 3 min 3,8 UV-I 766 W/m 13,4 C 18,3 C 9,7 km/h (2 Bft)
23.06.2023 10:48 17,9 C 19,4 C 71 % 1024,4 hPa 0,0 l/m 12,1 km/h (2 Bft) W 265 3 min 3,1 UV-I 496 W/m 12,6 C 15,6 C 19,3 km/h (3 Bft)
23.06.2023 10:51 17,6 C 18,3 C 72 % 1024,4 hPa 0,0 l/m 9,5 km/h (2 Bft) W 269 0 min 2,2 UV-I 235 W/m 12,5 C 16,2 C 14,5 km/h (3 Bft)
23.06.2023 10:54 17,6 C 18,9 C 73 % 1024,4 hPa 0,0 l/m 5,8 km/h (2 Bft) W-SW 252 0 min 3,2 UV-I 153 W/m 12,7 C 17,6 C 17,7 km/h (3 Bft)
23.06.2023 10:57 17,6 C 18,9 C 71 % 1024,3 hPa 0,0 l/m 11,3 km/h (2 Bft) W-NW 288 0 min 3,8 UV-I 404 W/m 12,3 C 15,5 C 19,3 km/h (3 Bft)
23.06.2023 11:00 18,1 C 20,0 C 69 % 1024,4 hPa 0,0 l/m 9,1 km/h (2 Bft) W-NW 300 3 min 4,7 UV-I 758 W/m 12,3 C 16,9 C 22,5 km/h (4 Bft)
23.06.2023 11:03 18,4 C 20,0 C 69 % 1024,5 hPa 0,0 l/m 8,8 km/h (2 Bft) NW 313 3 min 4,0 UV-I 732 W/m 12,6 C 17,3 C 17,7 km/h (3 Bft)
23.06.2023 11:06 18,7 C 20,6 C 66 % 1024,5 hPa 0,0 l/m 9,7 km/h (2 Bft) N-NW 329 3 min 4,6 UV-I 748 W/m 12,2 C 17,3 C 17,7 km/h (3 Bft)
23.06.2023 11:09 19,0 C 21,7 C 67 % 1024,6 hPa 0,0 l/m 5,9 km/h (2 Bft) W 264 3 min 4,8 UV-I 755 W/m 12,7 C 19,0 C 12,9 km/h (3 Bft)
23.06.2023 11:12 19,0 C 22,8 C 68 % 1024,6 hPa 0,0 l/m 11,3 km/h (2 Bft) SW 230 3 min 4,9 UV-I 750 W/m 13,0 C 17,1 C 22,5 km/h (4 Bft)
23.06.2023 11:15 18,8 C 21,7 C 68 % 1024,6 hPa 0,0 l/m 9,9 km/h (2 Bft) W-SW 253 3 min 3,7 UV-I 792 W/m 12,8 C 17,4 C 19,3 km/h (3 Bft)
23.06.2023 11:18 18,7 C 21,7 C 68 % 1024,6 hPa 0,0 l/m 9,9 km/h (2 Bft) W-NW 296 3 min 4,5 UV-I 788 W/m 12,7 C 17,2 C 20,9 km/h (4 Bft)
23.06.2023 11:21 18,8 C 21,1 C 66 % 1024,6 hPa 0,0 l/m 11,9 km/h (2 Bft) N 351 3 min 4,2 UV-I 797 W/m 12,3 C 16,7 C 19,3 km/h (3 Bft)
23.06.2023 11:24 18,7 C 22,8 C 67 % 1024,8 hPa 0,0 l/m 7,7 km/h (2 Bft) W 273 3 min 5,0 UV-I 789 W/m 12,4 C 18,1 C 16,1 km/h (3 Bft)
23.06.2023 11:27 18,9 C 23,3 C 66 % 1024,9 hPa 0,0 l/m 8,1 km/h (2 Bft) NW 308 3 min 4,9 UV-I 751 W/m 12,4 C 18,2 C 16,1 km/h (3 Bft)
23.06.2023 11:30 19,1 C 23,9 C 64 % 1024,8 hPa 0,0 l/m 9,0 km/h (2 Bft) NW 320 3 min 5,3 UV-I 771 W/m 12,1 C 18,0 C 17,7 km/h (3 Bft)
23.06.2023 11:33 19,3 C 23,9 C 65 % 1024,8 hPa 0,0 l/m 6,3 km/h (2 Bft) W-NW 300 3 min 5,3 UV-I 769 W/m 12,6 C 19,3 C 12,9 km/h (3 Bft)
23.06.2023 11:36 19,6 C 25,0 C 64 % 1024,8 hPa 0,0 l/m 8,1 km/h (2 Bft) W-SW 250 3 min 5,4 UV-I 789 W/m 12,6 C 18,9 C 14,5 km/h (3 Bft)
23.06.2023 11:39 19,5 C 25,0 C 65 % 1024,9 hPa 0,0 l/m 3,3 km/h (1 Bft) W-SW 250 3 min 5,5 UV-I 803 W/m 12,7 C 19,5 C 12,9 km/h (3 Bft)
23.06.2023 11:42 19,8 C 25,0 C 67 % 1024,8 hPa 0,0 l/m 9,0 km/h (2 Bft) S-SW 198 3 min 5,6 UV-I 824 W/m 13,5 C 18,8 C 16,1 km/h (3 Bft)
23.06.2023 11:45 19,8 C 23,3 C 63 % 1024,9 hPa 0,0 l/m 11,1 km/h (2 Bft) W 270 3 min 4,9 UV-I 807 W/m 12,5 C 18,1 C 19,3 km/h (3 Bft)
23.06.2023 11:48 19,7 C 23,9 C 64 % 1025,0 hPa 0,0 l/m 8,9 km/h (2 Bft) W-SW 248 3 min 4,6 UV-I 844 W/m 12,7 C 18,7 C 17,7 km/h (3 Bft)
23.06.2023 11:51 19,9 C 24,4 C 63 % 1025,0 hPa 0,0 l/m 6,5 km/h (2 Bft) W-NW 298 3 min 5,7 UV-I 810 W/m 12,6 C 19,9 C 14,5 km/h (3 Bft)
23.06.2023 11:54 19,8 C 24,4 C 60 % 1024,9 hPa 0,0 l/m 7,6 km/h (2 Bft) W-NW 282 3 min 5,7 UV-I 801 W/m 11,8 C 19,3 C 16,1 km/h (3 Bft)
23.06.2023 11:57 19,9 C 25,6 C 59 % 1024,9 hPa 0,0 l/m 8,3 km/h (2 Bft) NW 324 3 min 5,8 UV-I 805 W/m 11,6 C 19,1 C 16,1 km/h (3 Bft)
23.06.2023 12:00 20,1 C 25,6 C 61 % 1024,9 hPa 0,0 l/m 8,8 km/h (2 Bft) W-NW 290 3 min 5,8 UV-I 806 W/m 12,3 C 19,2 C 16,1 km/h (3 Bft)
23.06.2023 12:03 20,1 C 25,6 C 61 % 1024,9 hPa 0,0 l/m 8,7 km/h (2 Bft) NW 320 3 min 5,9 UV-I 820 W/m 12,3 C 19,2 C 14,5 km/h (3 Bft)
23.06.2023 12:06 20,5 C 26,1 C 63 % 1025,0 hPa 0,0 l/m 6,8 km/h (2 Bft) W-NW 301 3 min 5,9 UV-I 821 W/m 13,2 C 20,3 C 14,5 km/h (3 Bft)
23.06.2023 12:09 20,3 C 25,6 C 58 % 1024,9 hPa 0,0 l/m 9,9 km/h (2 Bft) NW 304 3 min 6,1 UV-I 825 W/m 11,8 C 19,0 C 19,3 km/h (3 Bft)
23.06.2023 12:12 20,4 C 25,6 C 59 % 1025,0 hPa 0,0 l/m 12,4 km/h (3 Bft) W-NW 296 3 min 6,0 UV-I 825 W/m 12,1 C 18,4 C 20,9 km/h (4 Bft)
23.06.2023 12:15 20,4 C 26,1 C 58 % 1025,0 hPa 0,0 l/m 7,3 km/h (2 Bft) NW 311 3 min 6,2 UV-I 833 W/m 11,9 C 20,0 C 17,7 km/h (3 Bft)
23.06.2023 12:18 20,9 C 27,2 C 61 % 1025,1 hPa 0,0 l/m 6,2 km/h (2 Bft) N-NW 327 3 min 6,2 UV-I 833 W/m 13,1 C 20,9 C 14,5 km/h (3 Bft)
23.06.2023 12:21 21,2 C 26,7 C 60 % 1025,0 hPa 0,0 l/m 4,6 km/h (1 Bft) W 260 3 min 6,2 UV-I 832 W/m 13,1 C 21,2 C 14,5 km/h (3 Bft)
23.06.2023 12:24 21,1 C 26,1 C 59 % 1025,1 hPa 0,0 l/m 11,3 km/h (2 Bft) W-SW 239 3 min 6,2 UV-I 832 W/m 12,8 C 19,5 C 19,3 km/h (3 Bft)
23.06.2023 12:27 21,1 C 26,1 C 59 % 1025,0 hPa 0,0 l/m 10,8 km/h (2 Bft) W 269 3 min 6,3 UV-I 843 W/m 12,8 C 19,6 C 19,3 km/h (3 Bft)
23.06.2023 12:30 20,8 C 25,6 C 58 % 1025,1 hPa 0,0 l/m 11,9 km/h (2 Bft) NW 321 3 min 6,3 UV-I 854 W/m 12,2 C 19,0 C 19,3 km/h (3 Bft)
23.06.2023 12:33 20,8 C 25,6 C 57 % 1025,1 hPa 0,0 l/m 11,5 km/h (2 Bft) W-SW 247 3 min 6,4 UV-I 862 W/m 12,0 C 19,1 C 20,9 km/h (4 Bft)
23.06.2023 12:36 21,0 C 26,7 C 56 % 1025,1 hPa 0,0 l/m 10,6 km/h (2 Bft) N 355 3 min 6,4 UV-I 861 W/m 11,9 C 19,6 C 20,9 km/h (4 Bft)
23.06.2023 12:39 21,1 C 26,7 C 58 % 1025,0 hPa 0,0 l/m 9,5 km/h (2 Bft) N 360 3 min 6,5 UV-I 861 W/m 12,5 C 20,0 C 19,3 km/h (3 Bft)
23.06.2023 12:42 21,3 C 26,7 C 55 % 1025,0 hPa 0,0 l/m 12,0 km/h (2 Bft) W-NW 291 3 min 6,5 UV-I 863 W/m 11,9 C 19,5 C 20,9 km/h (4 Bft)
23.06.2023 12:45 21,4 C 27,8 C 55 % 1025,0 hPa 0,0 l/m 8,4 km/h (2 Bft) W 277 3 min 6,6 UV-I 868 W/m 12,0 C 20,7 C 17,7 km/h (3 Bft)
23.06.2023 12:48 21,6 C 27,2 C 57 % 1025,1 hPa 0,0 l/m 11,5 km/h (2 Bft) N 360 3 min 6,7 UV-I 875 W/m 12,7 C 20,0 C 20,9 km/h (4 Bft)
23.06.2023 12:51 21,6 C 27,8 C 55 % 1025,1 hPa 0,0 l/m 9,9 km/h (2 Bft) NW 325 3 min 6,7 UV-I 889 W/m 12,2 C 20,4 C 19,3 km/h (3 Bft)
23.06.2023 12:54 21,4 C 28,3 C 54 % 1025,1 hPa 0,0 l/m 9,5 km/h (2 Bft) N 360 3 min 6,7 UV-I 882 W/m 11,7 C 20,3 C 17,7 km/h (3 Bft)
23.06.2023 12:57 21,5 C 28,3 C 57 % 1025,0 hPa 0,0 l/m 11,1 km/h (2 Bft) N 5 3 min 6,7 UV-I 897 W/m 12,6 C 20,0 C 22,5 km/h (4 Bft)
23.06.2023 13:00 21,6 C 28,3 C 56 % 1025,0 hPa 0,0 l/m 13,9 km/h (3 Bft) N-NW 345 3 min 6,7 UV-I 890 W/m 12,4 C 19,4 C 22,5 km/h (4 Bft)
23.06.2023 13:03 21,6 C 27,8 C 60 % 1025,1 hPa 0,0 l/m 7,2 km/h (2 Bft) N-NW 342 3 min 6,4 UV-I 921 W/m 13,5 C 21,3 C 16,1 km/h (3 Bft)
23.06.2023 13:06 21,7 C 27,8 C 54 % 1025,1 hPa 0,0 l/m 11,3 km/h (2 Bft) N-NW 338 3 min 6,3 UV-I 935 W/m 12,0 C 20,2 C 19,3 km/h (3 Bft)
23.06.2023 13:09 21,6 C 28,3 C 53 % 1025,0 hPa 0,0 l/m 11,2 km/h (2 Bft) N 349 3 min 6,9 UV-I 915 W/m 11,6 C 20,1 C 19,3 km/h (3 Bft)
23.06.2023 13:12 21,5 C 28,9 C 55 % 1025,0 hPa 0,0 l/m 10,8 km/h (2 Bft) NW 308 3 min 7,0 UV-I 950 W/m 12,1 C 20,1 C 20,9 km/h (4 Bft)
23.06.2023 13:15 21,6 C 28,9 C 55 % 1025,1 hPa 0,0 l/m 8,7 km/h (2 Bft) W-NW 299 3 min 6,7 UV-I 972 W/m 12,2 C 20,8 C 14,5 km/h (3 Bft)
23.06.2023 13:18 21,7 C 29,4 C 57 % 1025,1 hPa 0,0 l/m 9,2 km/h (2 Bft) W 269 3 min 6,9 UV-I 927 W/m 12,8 C 20,8 C 22,5 km/h (4 Bft)
23.06.2023 13:21 21,7 C 28,9 C 52 % 1025,2 hPa 0,0 l/m 11,5 km/h (2 Bft) N-NW 336 3 min 7,0 UV-I 916 W/m 11,4 C 20,1 C 24,1 km/h (4 Bft)
23.06.2023 13:24 21,9 C 29,4 C 54 % 1025,0 hPa 0,0 l/m 6,8 km/h (2 Bft) W-SW 255 3 min 7,0 UV-I 923 W/m 12,2 C 21,8 C 20,9 km/h (4 Bft)
23.06.2023 13:27 21,9 C 27,8 C 53 % 1025,1 hPa 0,0 l/m 10,3 km/h (2 Bft) NW 321 3 min 7,0 UV-I 912 W/m 11,9 C 20,7 C 19,3 km/h (3 Bft)
23.06.2023 13:30 22,1 C 29,4 C 55 % 1025,1 hPa 0,0 l/m 6,9 km/h (2 Bft) NW 311 3 min 7,1 UV-I 933 W/m 12,6 C 21,9 C 20,9 km/h (4 Bft)
23.06.2023 13:33 22,3 C 30,0 C 56 % 1025,1 hPa 0,0 l/m 7,5 km/h (2 Bft) S-SW 195 3 min 7,3 UV-I 1007 W/m 13,1 C 21,9 C 17,7 km/h (3 Bft)
23.06.2023 13:36 21,8 C 27,8 C 55 % 1025,2 hPa 0,0 l/m 4,1 km/h (1 Bft) W-NW 286 3 min 3,8 UV-I 674 W/m 12,4 C 21,8 C 11,3 km/h (2 Bft)
23.06.2023 13:39 21,2 C 25,0 C 55 % 1025,3 hPa 0,0 l/m 7,2 km/h (2 Bft) W-NW 294 0 min 3,1 UV-I 265 W/m 11,8 C 20,9 C 22,5 km/h (4 Bft)
23.06.2023 13:42 20,9 C 24,4 C 58 % 1025,3 hPa 0,0 l/m 6,7 km/h (2 Bft) W-NW 286 0 min 4,8 UV-I 303 W/m 12,3 C 20,8 C 14,5 km/h (3 Bft)
23.06.2023 13:45 21,3 C 26,7 C 54 % 1025,3 hPa 0,0 l/m 11,4 km/h (2 Bft) W-NW 300 3 min 5,8 UV-I 556 W/m 11,6 C 19,7 C 25,7 km/h (4 Bft)
23.06.2023 13:48 21,8 C 28,9 C 54 % 1025,3 hPa 0,0 l/m 8,8 km/h (2 Bft) N-NW 341 3 min 7,1 UV-I 951 W/m 12,1 C 21,0 C 16,1 km/h (3 Bft)
23.06.2023 13:51 22,0 C 30,0 C 52 % 1025,3 hPa 0,0 l/m 5,1 km/h (1 Bft) W-NW 294 3 min 7,0 UV-I 910 W/m 11,7 C 22,0 C 12,9 km/h (3 Bft)
23.06.2023 13:54 22,2 C 30,0 C 55 % 1025,3 hPa 0,0 l/m 8,0 km/h (2 Bft) N-NW 335 3 min 7,0 UV-I 910 W/m 12,7 C 21,7 C 16,1 km/h (3 Bft)
23.06.2023 13:57 22,3 C 29,4 C 55 % 1025,3 hPa 0,0 l/m 6,1 km/h (2 Bft) W-SW 252 3 min 7,2 UV-I 924 W/m 12,8 C 22,3 C 12,9 km/h (3 Bft)
23.06.2023 14:00 22,4 C 30,6 C 53 % 1025,3 hPa 0,0 l/m 5,6 km/h (1 Bft) N 355 3 min 7,2 UV-I 930 W/m 12,3 C 22,4 C 9,7 km/h (2 Bft)
23.06.2023 14:03 22,3 C 30,6 C 53 % 1025,4 hPa 0,0 l/m 8,0 km/h (2 Bft) W 279 3 min 7,3 UV-I 964 W/m 12,2 C 21,8 C 19,3 km/h (3 Bft)
23.06.2023 14:06 22,3 C 27,8 C 54 % 1025,5 hPa 0,0 l/m 6,7 km/h (2 Bft) W 279 3 min 5,4 UV-I 1023 W/m 12,5 C 22,2 C 16,1 km/h (3 Bft)
23.06.2023 14:09 21,9 C 27,2 C 51 % 1025,5 hPa 0,0 l/m 10,2 km/h (2 Bft) SW 229 3 min 5,9 UV-I 537 W/m 11,3 C 20,7 C 16,1 km/h (3 Bft)
23.06.2023 14:12 22,1 C 28,3 C 54 % 1025,4 hPa 0,0 l/m 9,7 km/h (2 Bft) W 269 3 min 7,2 UV-I 951 W/m 12,3 C 21,0 C 17,7 km/h (3 Bft)
23.06.2023 14:15 22,3 C 27,8 C 55 % 1025,5 hPa 0,0 l/m 8,9 km/h (2 Bft) W-NW 293 3 min 5,8 UV-I 972 W/m 12,8 C 21,5 C 16,1 km/h (3 Bft)
23.06.2023 14:18 22,1 C 27,2 C 54 % 1025,5 hPa 0,0 l/m 3,1 km/h (1 Bft) W-NW 284 0 min 4,3 UV-I 385 W/m 12,3 C 22,1 C 12,9 km/h (3 Bft)
23.06.2023 14:21 21,8 C 27,2 C 55 % 1025,5 hPa 0,0 l/m 7,1 km/h (2 Bft) W 263 0 min 5,0 UV-I 418 W/m 12,4 C 21,6 C 16,1 km/h (3 Bft)
23.06.2023 14:24 21,7 C 26,1 C 58 % 1025,4 hPa 0,0 l/m 2,8 km/h (1 Bft) W-NW 300 0 min 3,1 UV-I 235 W/m 13,1 C 21,7 C 11,3 km/h (2 Bft)
23.06.2023 14:27 21,1 C 24,4 C 58 % 1025,5 hPa 0,0 l/m 6,1 km/h (2 Bft) NW 321 0 min 3,2 UV-I 187 W/m 12,5 C 21,1 C 17,7 km/h (3 Bft)
23.06.2023 14:30 21,7 C 28,3 C 57 % 1025,5 hPa 0,0 l/m 8,1 km/h (2 Bft) W-NW 288 3 min 6,8 UV-I 607 W/m 12,8 C 21,1 C 17,7 km/h (3 Bft)
23.06.2023 14:33 22,6 C 31,7 C 57 % 1025,4 hPa 0,0 l/m 6,0 km/h (2 Bft) W-NW 282 3 min 7,2 UV-I 1003 W/m 13,6 C 22,6 C 24,1 km/h (4 Bft)
23.06.2023 14:36 22,9 C 31,1 C 53 % 1025,4 hPa 0,0 l/m 10,2 km/h (2 Bft) W 261 3 min 7,0 UV-I 968 W/m 12,8 C 21,8 C 17,7 km/h (3 Bft)
23.06.2023 14:39 22,7 C 30,6 C 53 % 1025,3 hPa 0,0 l/m 8,2 km/h (2 Bft) SW 219 3 min 6,8 UV-I 983 W/m 12,6 C 22,1 C 16,1 km/h (3 Bft)
23.06.2023 14:42 22,6 C 30,0 C 54 % 1025,4 hPa 0,0 l/m 7,5 km/h (2 Bft) W 267 3 min 6,3 UV-I 992 W/m 12,8 C 22,2 C 17,7 km/h (3 Bft)
23.06.2023 14:45 22,8 C 31,1 C 52 % 1025,4 hPa 0,0 l/m 9,2 km/h (2 Bft) NW 311 3 min 7,2 UV-I 969 W/m 12,4 C 21,9 C 17,7 km/h (3 Bft)
23.06.2023 14:48 22,7 C 31,7 C 51 % 1025,4 hPa 0,0 l/m 5,9 km/h (2 Bft) N 349 3 min 7,2 UV-I 1002 W/m 12,0 C 22,7 C 9,7 km/h (2 Bft)
23.06.2023 14:51 22,7 C 30,6 C 52 % 1025,3 hPa 0,0 l/m 6,2 km/h (2 Bft) SW 231 3 min 6,1 UV-I 523 W/m 12,3 C 22,7 C 16,1 km/h (3 Bft)
23.06.2023 14:54 22,8 C 31,7 C 54 % 1025,2 hPa 0,0 l/m 5,9 km/h (2 Bft) N-NW 331 3 min 6,9 UV-I 894 W/m 13,0 C 22,8 C 11,3 km/h (2 Bft)
23.06.2023 14:57 23,4 C 31,1 C 52 % 1025,2 hPa 0,0 l/m 9,4 km/h (2 Bft) S 184 3 min 6,9 UV-I 936 W/m 13,0 C 22,5 C 17,7 km/h (3 Bft)
23.06.2023 15:00 23,3 C 30,6 C 52 % 1025,1 hPa 0,0 l/m 6,1 km/h (2 Bft) NW 320 3 min 6,8 UV-I 897 W/m 12,9 C 23,3 C 17,7 km/h (3 Bft)
23.06.2023 15:03 22,8 C 30,6 C 52 % 1025,2 hPa 0,0 l/m 7,2 km/h (2 Bft) W 275 3 min 6,8 UV-I 895 W/m 12,4 C 22,5 C 14,5 km/h (3 Bft)
23.06.2023 15:06 23,1 C 31,1 C 52 % 1025,1 hPa 0,0 l/m 11,7 km/h (2 Bft) W-SW 243 3 min 6,9 UV-I 913 W/m 12,7 C 21,7 C 22,5 km/h (4 Bft)
23.06.2023 15:09 23,3 C 31,1 C 50 % 1025,0 hPa 0,0 l/m 9,4 km/h (2 Bft) S-SW 205 3 min 6,8 UV-I 912 W/m 12,3 C 22,4 C 16,1 km/h (3 Bft)
23.06.2023 15:12 23,3 C 29,4 C 49 % 1025,1 hPa 0,0 l/m 12,2 km/h (2 Bft) W 259 3 min 6,8 UV-I 920 W/m 12,0 C 21,8 C 24,1 km/h (4 Bft)
23.06.2023 15:15 23,3 C 30,6 C 49 % 1025,0 hPa 0,0 l/m 10,2 km/h (2 Bft) W-NW 292 3 min 6,7 UV-I 940 W/m 12,0 C 22,2 C 19,3 km/h (3 Bft)
23.06.2023 15:18 23,6 C 30,0 C 50 % 1025,1 hPa 0,0 l/m 11,7 km/h (2 Bft) S-SW 203 3 min 6,6 UV-I 926 W/m 12,6 C 22,2 C 22,5 km/h (4 Bft)
23.06.2023 15:21 23,4 C 30,6 C 51 % 1025,0 hPa 0,0 l/m 13,2 km/h (3 Bft) SW 227 3 min 6,6 UV-I 955 W/m 12,7 C 21,7 C 22,5 km/h (4 Bft)
23.06.2023 15:24 23,2 C 30,6 C 51 % 1025,0 hPa 0,0 l/m 9,8 km/h (2 Bft) W-NW 288 3 min 6,1 UV-I 930 W/m 12,5 C 22,2 C 24,1 km/h (4 Bft)
23.06.2023 15:27 22,9 C 30,0 C 52 % 1025,0 hPa 0,0 l/m 11,8 km/h (2 Bft) W-SW 242 3 min 6,3 UV-I 910 W/m 12,5 C 21,4 C 24,1 km/h (4 Bft)
23.06.2023 15:30 23,0 C 30,6 C 51 % 1025,0 hPa 0,0 l/m 8,0 km/h (2 Bft) W 279 3 min 6,4 UV-I 904 W/m 12,3 C 22,5 C 14,5 km/h (3 Bft)
23.06.2023 15:33 23,4 C 31,1 C 50 % 1025,0 hPa 0,0 l/m 9,2 km/h (2 Bft) W 271 3 min 6,3 UV-I 898 W/m 12,4 C 22,6 C 19,3 km/h (3 Bft)
23.06.2023 15:36 23,6 C 31,7 C 51 % 1025,0 hPa 0,0 l/m 10,1 km/h (2 Bft) W-SW 242 3 min 6,1 UV-I 869 W/m 12,9 C 22,6 C 19,3 km/h (3 Bft)
23.06.2023 15:39 23,6 C 32,2 C 51 % 1025,0 hPa 0,0 l/m 10,9 km/h (2 Bft) SW 225 3 min 6,1 UV-I 881 W/m 12,9 C 22,4 C 19,3 km/h (3 Bft)
23.06.2023 15:42 23,6 C 31,7 C 52 % 1025,1 hPa 0,0 l/m 9,2 km/h (2 Bft) N-NW 343 3 min 6,1 UV-I 913 W/m 13,2 C 22,8 C 19,3 km/h (3 Bft)
23.06.2023 15:45 23,9 C 32,8 C 56 % 1025,0 hPa 0,0 l/m 6,5 km/h (2 Bft) N 5 3 min 6,0 UV-I 914 W/m 14,6 C 23,9 C 16,1 km/h (3 Bft)
23.06.2023 15:48 23,5 C 28,9 C 53 % 1025,1 hPa 0,0 l/m 6,4 km/h (2 Bft) W 270 3 min 3,4 UV-I 480 W/m 13,4 C 23,5 C 16,1 km/h (3 Bft)
23.06.2023 15:51 23,2 C 30,6 C 54 % 1025,1 hPa 0,0 l/m 5,4 km/h (1 Bft) NW 311 3 min 5,4 UV-I 563 W/m 13,4 C 23,2 C 17,7 km/h (3 Bft)
23.06.2023 15:54 23,2 C 31,7 C 55 % 1025,1 hPa 0,0 l/m 8,2 km/h (2 Bft) W-SW 257 3 min 5,8 UV-I 845 W/m 13,6 C 22,7 C 17,7 km/h (3 Bft)
23.06.2023 15:57 22,9 C 30,0 C 53 % 1025,1 hPa 0,0 l/m 10,8 km/h (2 Bft) N-NW 338 3 min 3,8 UV-I 511 W/m 12,8 C 21,6 C 17,7 km/h (3 Bft)
23.06.2023 16:00 22,4 C 28,9 C 54 % 1025,1 hPa 0,0 l/m 8,9 km/h (2 Bft) W-NW 285 3 min 4,8 UV-I 457 W/m 12,6 C 21,6 C 16,1 km/h (3 Bft)
23.06.2023 16:03 22,8 C 29,4 C 52 % 1025,1 hPa 0,0 l/m 7,7 km/h (2 Bft) W-NW 299 3 min 4,5 UV-I 847 W/m 12,4 C 22,4 C 17,7 km/h (3 Bft)
23.06.2023 16:06 23,1 C 30,0 C 56 % 1025,1 hPa 0,0 l/m 4,8 km/h (1 Bft) SW 222 3 min 5,2 UV-I 874 W/m 13,8 C 23,1 C 12,9 km/h (3 Bft)
23.06.2023 16:09 23,2 C 31,1 C 51 % 1025,1 hPa 0,0 l/m 8,2 km/h (2 Bft) W-NW 296 3 min 5,3 UV-I 919 W/m 12,5 C 22,7 C 19,3 km/h (3 Bft)
23.06.2023 16:12 23,3 C 32,2 C 53 % 1025,1 hPa 0,0 l/m 9,1 km/h (2 Bft) W-SW 252 3 min 5,4 UV-I 894 W/m 13,2 C 22,5 C 16,1 km/h (3 Bft)
23.06.2023 16:15 23,5 C 31,1 C 54 % 1025,2 hPa 0,0 l/m 8,8 km/h (2 Bft) W 279 3 min 5,5 UV-I 877 W/m 13,6 C 22,8 C 16,1 km/h (3 Bft)
23.06.2023 16:18 23,2 C 28,9 C 53 % 1025,1 hPa 0,0 l/m 11,5 km/h (2 Bft) W-SW 257 3 min 3,0 UV-I 623 W/m 13,1 C 21,8 C 20,9 km/h (4 Bft)
23.06.2023 16:21 22,7 C 27,8 C 53 % 1025,2 hPa 0,0 l/m 10,3 km/h (2 Bft) W 280 0 min 3,5 UV-I 246 W/m 12,6 C 21,5 C 19,3 km/h (3 Bft)
23.06.2023 16:24 22,9 C 28,3 C 54 % 1025,2 hPa 0,0 l/m 10,2 km/h (2 Bft) W 280 3 min 4,5 UV-I 608 W/m 13,1 C 21,8 C 17,7 km/h (3 Bft)
23.06.2023 16:27 22,8 C 27,8 C 53 % 1025,1 hPa 0,0 l/m 8,2 km/h (2 Bft) W-SW 256 3 min 3,8 UV-I 571 W/m 12,7 C 22,2 C 17,7 km/h (3 Bft)
23.06.2023 16:30 22,3 C 24,4 C 52 % 1025,2 hPa 0,0 l/m 14,0 km/h (3 Bft) W 276 0 min 2,4 UV-I 173 W/m 12,0 C 20,2 C 22,5 km/h (4 Bft)
23.06.2023 16:33 22,2 C 26,7 C 53 % 1025,3 hPa 0,0 l/m 5,4 km/h (1 Bft) W 261 0 min 3,9 UV-I 233 W/m 12,2 C 22,2 C 14,5 km/h (3 Bft)
23.06.2023 16:36 22,7 C 29,4 C 55 % 1025,3 hPa 0,0 l/m 9,7 km/h (2 Bft) NW 304 3 min 4,9 UV-I 814 W/m 13,2 C 21,7 C 19,3 km/h (3 Bft)
23.06.2023 16:39 22,8 C 28,9 C 54 % 1025,2 hPa 0,0 l/m 10,9 km/h (2 Bft) N-NW 333 3 min 3,7 UV-I 665 W/m 13,0 C 21,5 C 19,3 km/h (3 Bft)
23.06.2023 16:42 22,2 C 26,1 C 53 % 1025,2 hPa 0,0 l/m 9,5 km/h (2 Bft) N-NW 328 0 min 2,6 UV-I 251 W/m 12,2 C 21,2 C 17,7 km/h (3 Bft)
23.06.2023 16:45 21,9 C 25,0 C 54 % 1025,3 hPa 0,0 l/m 9,1 km/h (2 Bft) W-NW 302 0 min 2,1 UV-I 208 W/m 12,2 C 21,0 C 16,1 km/h (3 Bft)
23.06.2023 16:48 22,1 C 27,2 C 56 % 1025,3 hPa 0,0 l/m 5,0 km/h (1 Bft) W-NW 294 0 min 3,1 UV-I 207 W/m 12,9 C 22,1 C 12,9 km/h (3 Bft)
23.06.2023 16:51 22,0 C 25,6 C 52 % 1025,3 hPa 0,0 l/m 8,0 km/h (2 Bft) W-NW 303 0 min 2,2 UV-I 203 W/m 11,7 C 21,5 C 16,1 km/h (3 Bft)
23.06.2023 16:54 21,9 C 25,0 C 54 % 1025,2 hPa 0,0 l/m 7,1 km/h (2 Bft) N 349 0 min 2,2 UV-I 214 W/m 12,2 C 21,7 C 16,1 km/h (3 Bft)
23.06.2023 16:57 22,0 C 26,7 C 56 % 1025,3 hPa 0,0 l/m 8,7 km/h (2 Bft) W 264 0 min 3,0 UV-I 223 W/m 12,8 C 21,2 C 19,3 km/h (3 Bft)
23.06.2023 17:00 22,7 C 30,0 C 58 % 1025,3 hPa 0,0 l/m 8,2 km/h (2 Bft) W 278 3 min 4,1 UV-I 719 W/m 14,0 C 22,1 C 16,1 km/h (3 Bft)
23.06.2023 17:03 22,7 C 30,0 C 52 % 1025,2 hPa 0,0 l/m 9,0 km/h (2 Bft) W-NW 303 3 min 3,5 UV-I 652 W/m 12,3 C 21,9 C 14,5 km/h (3 Bft)
23.06.2023 17:06 22,8 C 30,0 C 50 % 1025,3 hPa 0,0 l/m 9,4 km/h (2 Bft) NW 317 3 min 3,6 UV-I 672 W/m 11,8 C 21,9 C 22,5 km/h (4 Bft)
23.06.2023 17:09 22,8 C 30,6 C 52 % 1025,3 hPa 0,0 l/m 7,4 km/h (2 Bft) NW 325 3 min 3,7 UV-I 687 W/m 12,4 C 22,5 C 24,1 km/h (4 Bft)
23.06.2023 17:12 22,7 C 27,8 C 52 % 1025,3 hPa 0,0 l/m 7,8 km/h (2 Bft) NW 310 0 min 2,7 UV-I 340 W/m 12,3 C 22,2 C 17,7 km/h (3 Bft)
23.06.2023 17:15 22,8 C 30,0 C 54 % 1025,4 hPa 0,0 l/m 8,9 km/h (2 Bft) W-NW 286 3 min 3,6 UV-I 619 W/m 13,0 C 22,0 C 19,3 km/h (3 Bft)
23.06.2023 17:18 22,8 C 29,4 C 54 % 1025,4 hPa 0,0 l/m 8,3 km/h (2 Bft) W 259 3 min 3,6 UV-I 688 W/m 13,0 C 22,2 C 14,5 km/h (3 Bft)
23.06.2023 17:22 22,9 C 30,0 C 53 % 1025,4 hPa 0,0 l/m 8,0 km/h (2 Bft) N-NO 19 4 min 3,6 UV-I 660 W/m 12,8 C 22,4 C 17,7 km/h (3 Bft)
23.06.2023 17:24 22,9 C 30,0 C 55 % 1025,3 hPa 0,0 l/m 9,2 km/h (2 Bft) W 264 2 min 3,5 UV-I 643 W/m 13,4 C 22,1 C 17,7 km/h (3 Bft)
23.06.2023 17:27 23,0 C 31,7 C 53 % 1025,4 hPa 0,0 l/m 6,5 km/h (2 Bft) W 259 3 min 3,6 UV-I 663 W/m 12,9 C 23,0 C 14,5 km/h (3 Bft)
23.06.2023 17:30 22,8 C 27,8 C 54 % 1025,5 hPa 0,0 l/m 7,9 km/h (2 Bft) W 262 3 min 2,6 UV-I 460 W/m 13,0 C 22,3 C 12,9 km/h (3 Bft)
23.06.2023 17:33 22,4 C 26,1 C 55 % 1025,5 hPa 0,0 l/m 9,2 km/h (2 Bft) W 271 0 min 2,7 UV-I 230 W/m 12,9 C 21,5 C 19,3 km/h (3 Bft)
23.06.2023 17:37 22,8 C 28,9 C 53 % 1025,4 hPa 0,0 l/m 7,2 km/h (2 Bft) W-NW 293 4 min 3,2 UV-I 504 W/m 12,7 C 22,5 C 16,1 km/h (3 Bft)
23.06.2023 17:39 22,7 C 30,0 C 54 % 1025,4 hPa 0,0 l/m 8,5 km/h (2 Bft) N-NW 333 2 min 2,9 UV-I 521 W/m 12,9 C 22,0 C 17,7 km/h (3 Bft)
23.06.2023 17:44 22,6 C 27,8 C 53 % 1025,6 hPa 0,0 l/m 12,5 km/h (3 Bft) N-NW 346 5 min 2,6 UV-I 411 W/m 12,5 C 20,9 C 24,1 km/h (4 Bft)
23.06.2023 17:45 22,6 C 28,9 C 55 % 1025,5 hPa 0,0 l/m 7,8 km/h (2 Bft) N-NW 329 1 min 2,9 UV-I 599 W/m 13,1 C 22,1 C 12,9 km/h (3 Bft)
23.06.2023 17:46 22,7 C 29,4 C 54 % 1025,5 hPa 0,0 l/m 6,4 km/h (2 Bft) N-NW 332 1 min 2,9 UV-I 589 W/m 12,9 C 22,7 C 9,7 km/h (2 Bft)
23.06.2023 17:47 22,7 C 29,4 C 54 % 1025,5 hPa 0,0 l/m 3,2 km/h (1 Bft) N-NO 22 1 min 1,9 UV-I 603 W/m 12,9 C 22,7 C 8,0 km/h (2 Bft)
23.06.2023 17:48 22,7 C 29,4 C 54 % 1025,5 hPa 0,0 l/m 6,4 km/h (2 Bft) NW 315 0 min 1,9 UV-I 221 W/m 12,9 C 22,7 C 12,9 km/h (3 Bft)
23.06.2023 17:51 22,4 C 26,1 C 54 % 1025,6 hPa 0,0 l/m 5,1 km/h (1 Bft) W-SW 253 0 min 1,7 UV-I 197 W/m 12,6 C 22,4 C 8,0 km/h (2 Bft)
23.06.2023 17:54 22,1 C 24,4 C 53 % 1025,6 hPa 0,0 l/m 5,3 km/h (1 Bft) N-NW 329 0 min 1,5 UV-I 169 W/m 12,1 C 22,1 C 12,9 km/h (3 Bft)
23.06.2023 17:57 21,8 C 23,9 C 56 % 1025,5 hPa 0,0 l/m 3,8 km/h (1 Bft) NW 314 0 min 1,4 UV-I 158 W/m 12,6 C 21,8 C 8,0 km/h (2 Bft)
23.06.2023 18:00 21,8 C 24,4 C 58 % 1025,5 hPa 0,0 l/m 7,4 km/h (2 Bft) W-NW 291 0 min 1,5 UV-I 241 W/m 13,2 C 21,4 C 16,1 km/h (3 Bft)
23.06.2023 18:03 21,9 C 25,6 C 56 % 1025,6 hPa 0,0 l/m 4,8 km/h (1 Bft) NW 313 0 min 1,7 UV-I 266 W/m 12,7 C 21,9 C 9,7 km/h (2 Bft)
23.06.2023 18:06 22,1 C 26,1 C 56 % 1025,5 hPa 0,0 l/m 3,3 km/h (1 Bft) NW 309 3 min 1,9 UV-I 378 W/m 12,9 C 22,1 C 9,7 km/h (2 Bft)
23.06.2023 18:09 22,3 C 26,7 C 58 % 1025,5 hPa 0,0 l/m 2,9 km/h (1 Bft) N-NW 332 3 min 2,0 UV-I 329 W/m 13,6 C 22,3 C 8,0 km/h (2 Bft)
23.06.2023 18:12 22,4 C 27,2 C 56 % 1025,5 hPa 0,0 l/m 5,3 km/h (1 Bft) W-SW 251 3 min 2,1 UV-I 412 W/m 13,2 C 22,4 C 16,1 km/h (3 Bft)
23.06.2023 18:15 22,6 C 28,3 C 56 % 1025,5 hPa 0,0 l/m 8,1 km/h (2 Bft) NW 317 3 min 2,3 UV-I 484 W/m 13,4 C 22,1 C 14,5 km/h (3 Bft)
23.06.2023 18:18 22,4 C 27,2 C 54 % 1025,5 hPa 0,0 l/m 3,6 km/h (1 Bft) W 265 3 min 1,9 UV-I 306 W/m 12,6 C 22,4 C 9,7 km/h (2 Bft)
23.06.2023 18:21 22,4 C 28,3 C 55 % 1025,5 hPa 0,0 l/m 5,9 km/h (2 Bft) W-NW 286 3 min 2,2 UV-I 450 W/m 12,9 C 22,4 C 11,3 km/h (2 Bft)
23.06.2023 18:24 22,6 C 27,8 C 56 % 1025,5 hPa 0,0 l/m 5,9 km/h (2 Bft) NW 320 3 min 1,8 UV-I 369 W/m 13,4 C 22,6 C 16,1 km/h (3 Bft)
23.06.2023 18:27 22,6 C 27,8 C 56 % 1025,5 hPa 0,0 l/m 3,0 km/h (1 Bft) NW 322 3 min 1,8 UV-I 362 W/m 13,4 C 22,6 C 6,4 km/h (2 Bft)
23.06.2023 18:30 22,6 C 26,7 C 55 % 1025,6 hPa 0,0 l/m 3,6 km/h (1 Bft) W 268 3 min 1,9 UV-I 376 W/m 13,1 C 22,6 C 6,4 km/h (2 Bft)
23.06.2023 18:33 22,5 C 26,1 C 56 % 1025,5 hPa 0,0 l/m 7,8 km/h (2 Bft) W-NW 284 3 min 1,8 UV-I 327 W/m 13,3 C 22,0 C 16,1 km/h (3 Bft)
23.06.2023 18:36 22,3 C 25,6 C 55 % 1025,6 hPa 0,0 l/m 4,1 km/h (1 Bft) W 265 3 min 1,7 UV-I 294 W/m 12,8 C 22,3 C 11,3 km/h (2 Bft)
23.06.2023 18:39 22,2 C 25,0 C 56 % 1025,6 hPa 0,0 l/m 5,3 km/h (1 Bft) SW 229 3 min 1,8 UV-I 398 W/m 13,0 C 22,2 C 11,3 km/h (2 Bft)
23.06.2023 18:42 22,4 C 25,6 C 56 % 1025,6 hPa 0,0 l/m 8,4 km/h (2 Bft) NW 321 3 min 1,8 UV-I 400 W/m 13,2 C 21,7 C 16,1 km/h (3 Bft)
23.06.2023 18:45 22,3 C 25,6 C 57 % 1025,7 hPa 0,0 l/m 6,8 km/h (2 Bft) NW 307 3 min 1,8 UV-I 399 W/m 13,4 C 22,2 C 16,1 km/h (3 Bft)
23.06.2023 18:48 22,3 C 25,6 C 57 % 1025,7 hPa 0,0 l/m 9,9 km/h (2 Bft) N-NW 344 3 min 1,6 UV-I 377 W/m 13,4 C 21,2 C 16,1 km/h (3 Bft)
23.06.2023 18:51 22,2 C 25,6 C 56 % 1025,8 hPa 0,0 l/m 9,7 km/h (2 Bft) NW 321 3 min 1,7 UV-I 420 W/m 13,0 C 21,2 C 16,1 km/h (3 Bft)
23.06.2023 18:54 22,5 C 27,2 C 57 % 1025,8 hPa 0,0 l/m 6,6 km/h (2 Bft) NW 304 3 min 1,7 UV-I 437 W/m 13,5 C 22,4 C 11,3 km/h (2 Bft)
23.06.2023 18:57 22,5 C 28,9 C 56 % 1025,7 hPa 0,0 l/m 6,2 km/h (2 Bft) W-NW 299 3 min 1,6 UV-I 425 W/m 13,3 C 22,5 C 11,3 km/h (2 Bft)
23.06.2023 19:00 22,3 C 28,9 C 58 % 1025,7 hPa 0,0 l/m 6,6 km/h (2 Bft) N-NO 13 3 min 1,4 UV-I 397 W/m 13,6 C 22,2 C 16,1 km/h (3 Bft)
23.06.2023 19:03 22,6 C 30,0 C 57 % 1025,8 hPa 0,0 l/m 6,7 km/h (2 Bft) W-NW 292 3 min 1,4 UV-I 419 W/m 13,6 C 22,5 C 14,5 km/h (3 Bft)
23.06.2023 19:06 22,6 C 29,4 C 57 % 1025,8 hPa 0,0 l/m 4,8 km/h (1 Bft) N-NW 329 3 min 1,5 UV-I 437 W/m 13,6 C 22,6 C 11,3 km/h (2 Bft)
23.06.2023 19:09 22,6 C 29,4 C 56 % 1025,8 hPa 0,0 l/m 7,6 km/h (2 Bft) N-NW 336 3 min 1,4 UV-I 397 W/m 13,4 C 22,2 C 20,9 km/h (4 Bft)
23.06.2023 19:12 22,6 C 30,0 C 55 % 1025,8 hPa 0,0 l/m 5,8 km/h (2 Bft) N-NW 328 3 min 1,3 UV-I 349 W/m 13,1 C 22,6 C 17,7 km/h (3 Bft)
23.06.2023 19:15 22,3 C 28,9 C 56 % 1025,8 hPa 0,0 l/m 6,7 km/h (2 Bft) NW 322 3 min 1,2 UV-I 304 W/m 13,1 C 22,2 C 12,9 km/h (3 Bft)
23.06.2023 19:18 22,2 C 28,9 C 57 % 1025,8 hPa 0,0 l/m 6,5 km/h (2 Bft) NW 324 3 min 1,2 UV-I 299 W/m 13,3 C 22,2 C 14,5 km/h (3 Bft)
23.06.2023 19:21 22,1 C 28,3 C 58 % 1025,7 hPa 0,0 l/m 6,9 km/h (2 Bft) W-NW 300 3 min 1,2 UV-I 314 W/m 13,4 C 21,9 C 14,5 km/h (3 Bft)
23.06.2023 19:24 22,1 C 27,2 C 58 % 1025,8 hPa 0,0 l/m 9,6 km/h (2 Bft) N-NW 331 3 min 1,2 UV-I 322 W/m 13,4 C 21,1 C 16,1 km/h (3 Bft)
23.06.2023 19:27 22,1 C 27,8 C 58 % 1025,9 hPa 0,0 l/m 7,9 km/h (2 Bft) W-NW 301 3 min 1,2 UV-I 320 W/m 13,4 C 21,6 C 17,7 km/h (3 Bft)
23.06.2023 19:30 22,1 C 28,3 C 58 % 1025,8 hPa 0,0 l/m 5,0 km/h (1 Bft) NW 319 3 min 1,0 UV-I 285 W/m 13,4 C 22,1 C 14,5 km/h (3 Bft)
23.06.2023 19:33 22,1 C 28,3 C 58 % 1025,9 hPa 0,0 l/m 3,3 km/h (1 Bft) W-SW 254 3 min 1,1 UV-I 301 W/m 13,4 C 22,1 C 8,0 km/h (2 Bft)
23.06.2023 19:36 21,9 C 25,6 C 57 % 1026,0 hPa 0,0 l/m 4,7 km/h (1 Bft) W 278 3 min 0,9 UV-I 196 W/m 13,0 C 21,9 C 11,3 km/h (2 Bft)
23.06.2023 19:39 21,8 C 23,9 C 58 % 1026,0 hPa 0,0 l/m 5,3 km/h (1 Bft) W-NW 294 3 min 0,9 UV-I 195 W/m 13,2 C 21,8 C 14,5 km/h (3 Bft)
23.06.2023 19:42 21,6 C 23,9 C 58 % 1026,0 hPa 0,0 l/m 6,1 km/h (2 Bft) W 270 3 min 0,8 UV-I 203 W/m 13,0 C 21,6 C 16,1 km/h (3 Bft)
23.06.2023 19:45 21,5 C 23,9 C 59 % 1026,0 hPa 0,0 l/m 4,4 km/h (1 Bft) W 281 3 min 0,8 UV-I 204 W/m 13,1 C 21,5 C 11,3 km/h (2 Bft)
23.06.2023 19:48 21,5 C 23,3 C 59 % 1026,0 hPa 0,0 l/m 8,0 km/h (2 Bft) W-NW 296 3 min 0,8 UV-I 247 W/m 13,1 C 20,9 C 14,5 km/h (3 Bft)
23.06.2023 19:51 21,6 C 23,3 C 60 % 1026,1 hPa 0,0 l/m 4,6 km/h (1 Bft) NW 314 3 min 0,8 UV-I 253 W/m 13,5 C 21,6 C 12,9 km/h (3 Bft)
23.06.2023 19:54 21,7 C 23,3 C 58 % 1026,0 hPa 0,0 l/m 5,9 km/h (2 Bft) W 267 3 min 0,8 UV-I 250 W/m 13,1 C 21,7 C 12,9 km/h (3 Bft)
23.06.2023 19:57 21,8 C 23,3 C 59 % 1026,1 hPa 0,0 l/m 3,8 km/h (1 Bft) SW 234 3 min 0,8 UV-I 232 W/m 13,4 C 21,8 C 8,0 km/h (2 Bft)
23.06.2023 20:00 21,7 C 22,2 C 60 % 1026,1 hPa 0,0 l/m 8,5 km/h (2 Bft) W 264 3 min 0,7 UV-I 222 W/m 13,6 C 21,0 C 17,7 km/h (3 Bft)
23.06.2023 20:03 21,6 C 22,2 C 60 % 1026,1 hPa 0,0 l/m 6,7 km/h (2 Bft) W-SW 252 3 min 0,6 UV-I 195 W/m 13,5 C 21,5 C 14,5 km/h (3 Bft)
23.06.2023 20:06 21,4 C 21,7 C 59 % 1026,1 hPa 0,0 l/m 9,0 km/h (2 Bft) W 259 3 min 0,6 UV-I 174 W/m 13,0 C 20,5 C 17,7 km/h (3 Bft)
23.06.2023 20:09 21,2 C 21,1 C 60 % 1026,1 hPa 0,0 l/m 8,5 km/h (2 Bft) W 278 3 min 0,6 UV-I 157 W/m 13,1 C 20,4 C 14,5 km/h (3 Bft)
23.06.2023 20:12 21,1 C 21,1 C 60 % 1026,1 hPa 0,0 l/m 5,3 km/h (1 Bft) W-SW 249 3 min 0,5 UV-I 118 W/m 13,0 C 21,1 C 12,9 km/h (3 Bft)
23.06.2023 20:15 20,9 C 21,1 C 61 % 1026,1 hPa 0,0 l/m 4,7 km/h (1 Bft) W-SW 258 0 min 0,5 UV-I 95 W/m 13,1 C 20,9 C 11,3 km/h (2 Bft)
23.06.2023 20:18 20,8 C 20,6 C 62 % 1026,1 hPa 0,0 l/m 7,0 km/h (2 Bft) W-SW 251 3 min 0,5 UV-I 138 W/m 13,2 C 20,6 C 14,5 km/h (3 Bft)
23.06.2023 20:21 20,9 C 20,6 C 62 % 1026,1 hPa 0,0 l/m 5,0 km/h (1 Bft) SW 227 3 min 0,3 UV-I 122 W/m 13,3 C 20,9 C 11,3 km/h (2 Bft)
23.06.2023 20:24 20,8 C 20,6 C 62 % 1026,1 hPa 0,0 l/m 5,1 km/h (1 Bft) W-SW 252 0 min 0,0 UV-I 100 W/m 13,2 C 20,8 C 9,7 km/h (2 Bft)
23.06.2023 20:27 20,7 C 20,0 C 63 % 1026,1 hPa 0,0 l/m 3,4 km/h (1 Bft) W-SW 258 0 min 0,0 UV-I 88 W/m 13,4 C 20,7 C 6,4 km/h (2 Bft)
23.06.2023 20:30 20,6 C 20,0 C 63 % 1026,1 hPa 0,0 l/m 3,5 km/h (1 Bft) W 276 0 min 0,0 UV-I 80 W/m 13,3 C 20,6 C 6,4 km/h (2 Bft)
23.06.2023 20:33 20,6 C 20,0 C 63 % 1026,2 hPa 0,0 l/m 2,1 km/h (1 Bft) NW 307 0 min 0,0 UV-I 87 W/m 13,3 C 20,6 C 6,4 km/h (2 Bft)
23.06.2023 20:36 20,5 C 19,4 C 63 % 1026,1 hPa 0,0 l/m 2,6 km/h (1 Bft) NW 304 3 min 0,0 UV-I 86 W/m 13,2 C 20,5 C 4,8 km/h (1 Bft)
23.06.2023 20:39 20,4 C 19,4 C 64 % 1026,1 hPa 0,0 l/m 3,4 km/h (1 Bft) NW 317 0 min 0,0 UV-I 66 W/m 13,4 C 20,4 C 8,0 km/h (2 Bft)
23.06.2023 20:42 20,3 C 19,4 C 64 % 1026,1 hPa 0,0 l/m 2,5 km/h (1 Bft) W 275 0 min 0,0 UV-I 58 W/m 13,3 C 20,3 C 6,4 km/h (2 Bft)
23.06.2023 20:45 20,2 C 19,4 C 65 % 1026,1 hPa 0,0 l/m 2,3 km/h (1 Bft) W 278 0 min 0,0 UV-I 53 W/m 13,4 C 20,2 C 6,4 km/h (2 Bft)
23.06.2023 20:48 20,1 C 18,9 C 65 % 1025,9 hPa 0,0 l/m 2,0 km/h (1 Bft) W 278 0 min 0,0 UV-I 48 W/m 13,3 C 20,1 C 4,8 km/h (1 Bft)
23.06.2023 20:51 20,0 C 18,3 C 66 % 1026,0 hPa 0,0 l/m 0,5 km/h (0 Bft) W 278 0 min 0,0 UV-I 46 W/m 13,4 C 20,0 C 1,6 km/h (1 Bft)
23.06.2023 20:54 19,9 C 18,3 C 66 % 1026,0 hPa 0,0 l/m 1,7 km/h (1 Bft) W 278 0 min 0,0 UV-I 44 W/m 13,4 C 19,9 C 3,2 km/h (1 Bft)
23.06.2023 20:57 19,9 C 18,3 C 66 % 1026,0 hPa 0,0 l/m 2,5 km/h (1 Bft) W 278 0 min 0,0 UV-I 42 W/m 13,4 C 19,9 C 4,8 km/h (1 Bft)
23.06.2023 21:00 19,8 C 17,8 C 66 % 1026,0 hPa 0,0 l/m 1,9 km/h (1 Bft) W 278 0 min 0,0 UV-I 42 W/m 13,3 C 19,8 C 3,2 km/h (1 Bft)
23.06.2023 21:03 19,7 C 17,2 C 67 % 1026,0 hPa 0,0 l/m 1,5 km/h (1 Bft) W 278 0 min 0,0 UV-I 39 W/m 13,4 C 19,7 C 4,8 km/h (1 Bft)
23.06.2023 21:06 19,7 C 17,2 C 67 % 1025,9 hPa 0,0 l/m 2,1 km/h (1 Bft) W 278 0 min 0,0 UV-I 35 W/m 13,4 C 19,7 C 4,8 km/h (1 Bft)
23.06.2023 21:09 19,6 C 17,2 C 67 % 1026,0 hPa 0,0 l/m 1,2 km/h (1 Bft) W 278 0 min 0,0 UV-I 32 W/m 13,3 C 19,6 C 3,2 km/h (1 Bft)
23.06.2023 21:12 19,4 C 16,7 C 68 % 1026,1 hPa 0,0 l/m 2,1 km/h (1 Bft) W 277 0 min 0,0 UV-I 27 W/m 13,3 C 19,4 C 4,8 km/h (1 Bft)
23.06.2023 21:15 19,3 C 16,7 C 68 % 1026,0 hPa 0,0 l/m 2,7 km/h (1 Bft) W 277 0 min 0,0 UV-I 25 W/m 13,2 C 19,3 C 4,8 km/h (1 Bft)
23.06.2023 21:18 19,2 C 16,7 C 69 % 1026,0 hPa 0,0 l/m 0,5 km/h (0 Bft) W 277 0 min 0,0 UV-I 24 W/m 13,4 C 19,2 C 1,6 km/h (1 Bft)
23.06.2023 21:21 19,2 C 16,1 C 69 % 1026,0 hPa 0,0 l/m 0,5 km/h (0 Bft) W 277 0 min 0,0 UV-I 22 W/m 13,4 C 19,2 C 1,6 km/h (1 Bft)
23.06.2023 21:24 19,1 C 16,1 C 69 % 1026,1 hPa 0,0 l/m 0,2 km/h (0 Bft) W 277 0 min 0,0 UV-I 19 W/m 13,3 C 19,1 C 1,6 km/h (1 Bft)
23.06.2023 21:27 18,9 C 16,1 C 70 % 1026,0 hPa 0,0 l/m 0,0 km/h (0 Bft) W 277 0 min 0,0 UV-I 18 W/m 13,3 C 18,9 C 1,6 km/h (1 Bft)
23.06.2023 21:30 18,8 C 15,6 C 70 % 1025,9 hPa 0,0 l/m 0,0 km/h (0 Bft) W 277 0 min 0,0 UV-I 15 W/m 13,2 C 18,8 C 1,6 km/h (1 Bft)
23.06.2023 21:33 18,7 C 15,6 C 71 % 1026,0 hPa 0,0 l/m 0,0 km/h (0 Bft) W 277 0 min 0,0 UV-I 12 W/m 13,3 C 18,7 C 0,0 km/h (0 Bft)
23.06.2023 21:36 18,6 C 15,0 C 71 % 1026,0 hPa 0,0 l/m 0,0 km/h (0 Bft) W 277 0 min 0,0 UV-I 12 W/m 13,2 C 18,6 C 0,0 km/h (0 Bft)
23.06.2023 21:39 18,6 C 15,0 C 71 % 1026,1 hPa 0,0 l/m 0,1 km/h (0 Bft) W 277 0 min 0,0 UV-I 11 W/m 13,2 C 18,6 C 1,6 km/h (1 Bft)
23.06.2023 21:42 18,6 C 15,0 C 71 % 1026,2 hPa 0,0 l/m 0,0 km/h (0 Bft) W 277 0 min 0,0 UV-I 8 W/m 13,2 C 18,6 C 0,0 km/h (0 Bft)
23.06.2023 21:45 18,4 C 15,0 C 71 % 1026,2 hPa 0,0 l/m 0,0 km/h (0 Bft) W 277 0 min 0,0 UV-I 6 W/m 13,0 C 18,4 C 0,0 km/h (0 Bft)
23.06.2023 21:48 18,2 C 15,0 C 72 % 1026,2 hPa 0,0 l/m 0,6 km/h (0 Bft) W 277 0 min 0,0 UV-I 5 W/m 13,1 C 18,2 C 1,6 km/h (1 Bft)
23.06.2023 21:51 17,9 C 14,4 C 73 % 1026,3 hPa 0,0 l/m 0,1 km/h (0 Bft) W 277 0 min 0,0 UV-I 3 W/m 13,0 C 17,9 C 1,6 km/h (1 Bft)
23.06.2023 21:54 17,6 C 14,4 C 74 % 1026,3 hPa 0,0 l/m 0,0 km/h (0 Bft) W 277 0 min 0,0 UV-I 0 W/m 12,9 C 17,6 C 0,0 km/h (0 Bft)
23.06.2023 21:57 17,4 C 14,4 C 75 % 1026,2 hPa 0,0 l/m 0,0 km/h (0 Bft) W 277 0 min 0,0 UV-I 0 W/m 12,9 C 17,4 C 0,0 km/h (0 Bft)
23.06.2023 22:00 17,3 C 14,4 C 75 % 1026,2 hPa 0,0 l/m 0,0 km/h (0 Bft) W 277 0 min 0,0 UV-I 0 W/m 12,8 C 17,3 C 1,6 km/h (1 Bft)
23.06.2023 22:03 17,3 C 13,9 C 75 % 1026,3 hPa 0,0 l/m 0,0 km/h (0 Bft) W 277 0 min 0,0 UV-I 0 W/m 12,8 C 17,3 C 0,0 km/h (0 Bft)
23.06.2023 22:06 17,2 C 13,9 C 75 % 1026,3 hPa 0,0 l/m 0,0 km/h (0 Bft) W 277 0 min 0,0 UV-I 0 W/m 12,7 C 17,2 C 0,0 km/h (0 Bft)
23.06.2023 22:09 16,9 C 13,9 C 76 % 1026,3 hPa 0,0 l/m 1,5 km/h (1 Bft) W 277 0 min 0,0 UV-I 0 W/m 12,6 C 16,9 C 3,2 km/h (1 Bft)
23.06.2023 22:12 16,9 C 13,9 C 76 % 1026,4 hPa 0,0 l/m 3,5 km/h (1 Bft) W 277 0 min 0,0 UV-I 0 W/m 12,6 C 16,9 C 4,8 km/h (1 Bft)
23.06.2023 22:15 16,9 C 13,9 C 75 % 1026,3 hPa 0,0 l/m 1,9 km/h (1 Bft) W 277 0 min 0,0 UV-I 0 W/m 12,4 C 16,9 C 4,8 km/h (1 Bft)
23.06.2023 22:18 16,6 C 13,9 C 76 % 1026,3 hPa 0,0 l/m 0,0 km/h (0 Bft) W 277 0 min 0,0 UV-I 0 W/m 12,3 C 16,6 C 1,6 km/h (1 Bft)
23.06.2023 22:21 16,3 C 13,3 C 77 % 1026,5 hPa 0,0 l/m 0,2 km/h (0 Bft) W 277 0 min 0,0 UV-I 0 W/m 12,3 C 16,3 C 1,6 km/h (1 Bft)
23.06.2023 22:24 16,1 C 13,3 C 78 % 1026,6 hPa 0,0 l/m 1,2 km/h (1 Bft) W 277 0 min 0,0 UV-I 0 W/m 12,3 C 16,1 C 1,6 km/h (1 Bft)
23.06.2023 22:27 15,7 C 13,3 C 79 % 1026,7 hPa 0,0 l/m 0,3 km/h (0 Bft) W 277 0 min 0,0 UV-I 0 W/m 12,1 C 15,7 C 1,6 km/h (1 Bft)
23.06.2023 22:30 15,6 C 13,3 C 80 % 1026,6 hPa 0,0 l/m 0,0 km/h (0 Bft) W 277 0 min 0,0 UV-I 0 W/m 12,2 C 15,6 C 0,0 km/h (0 Bft)
23.06.2023 22:33 15,6 C 13,3 C 81 % 1026,7 hPa 0,0 l/m 0,6 km/h (0 Bft) W 277 0 min 0,0 UV-I 0 W/m 12,3 C 15,6 C 1,6 km/h (1 Bft)
23.06.2023 22:36 15,6 C 12,8 C 81 % 1026,7 hPa 0,0 l/m 1,1 km/h (1 Bft) W 277 0 min 0,0 UV-I 0 W/m 12,3 C 15,6 C 3,2 km/h (1 Bft)
23.06.2023 22:39 15,6 C 12,8 C 81 % 1026,7 hPa 0,0 l/m 0,0 km/h (0 Bft) W 277 0 min 0,0 UV-I 0 W/m 12,3 C 15,6 C 1,6 km/h (1 Bft)
23.06.2023 22:42 15,6 C 12,8 C 80 % 1026,7 hPa 0,0 l/m 0,0 km/h (0 Bft) W 277 0 min 0,0 UV-I 0 W/m 12,2 C 15,6 C 0,0 km/h (0 Bft)
23.06.2023 22:45 15,6 C 12,8 C 81 % 1026,7 hPa 0,0 l/m 0,0 km/h (0 Bft) W 277 0 min 0,0 UV-I 0 W/m 12,3 C 15,6 C 0,0 km/h (0 Bft)
23.06.2023 22:48 15,6 C 12,8 C 81 % 1026,7 hPa 0,0 l/m 0,1 km/h (0 Bft) W 277 0 min 0,0 UV-I 0 W/m 12,3 C 15,6 C 1,6 km/h (1 Bft)
23.06.2023 22:51 15,7 C 12,8 C 80 % 1026,7 hPa 0,0 l/m 0,6 km/h (0 Bft) W 277 0 min 0,0 UV-I 0 W/m 12,3 C 15,7 C 1,6 km/h (1 Bft)
23.06.2023 22:54 15,7 C 12,8 C 80 % 1026,7 hPa 0,0 l/m 0,2 km/h (0 Bft) W 277 0 min 0,0 UV-I 0 W/m 12,3 C 15,7 C 1,6 km/h (1 Bft)
23.06.2023 22:57 15,6 C 12,8 C 80 % 1026,7 hPa 0,0 l/m 0,4 km/h (0 Bft) W 277 0 min 0,0 UV-I 0 W/m 12,2 C 15,6 C 1,6 km/h (1 Bft)
23.06.2023 23:00 15,6 C 12,8 C 80 % 1026,7 hPa 0,0 l/m 0,2 km/h (0 Bft) W 277 0 min 0,0 UV-I 0 W/m 12,2 C 15,6 C 1,6 km/h (1 Bft)
23.06.2023 23:03 15,6 C 12,8 C 81 % 1026,8 hPa 0,0 l/m 0,0 km/h (0 Bft) W 277 0 min 0,0 UV-I 0 W/m 12,3 C 15,6 C 1,6 km/h (1 Bft)
23.06.2023 23:06 15,4 C 12,8 C 81 % 1026,8 hPa 0,0 l/m 0,0 km/h (0 Bft) W 277 0 min 0,0 UV-I 0 W/m 12,2 C 15,4 C 0,0 km/h (0 Bft)
23.06.2023 23:09 15,1 C 12,8 C 81 % 1026,8 hPa 0,0 l/m 0,0 km/h (0 Bft) W 277 0 min 0,0 UV-I 0 W/m 11,9 C 15,1 C 0,0 km/h (0 Bft)
23.06.2023 23:12 14,9 C 12,2 C 82 % 1026,8 hPa 0,0 l/m 0,5 km/h (0 Bft) W 277 0 min 0,0 UV-I 0 W/m 11,9 C 14,9 C 3,2 km/h (1 Bft)
23.06.2023 23:15 14,8 C 12,2 C 83 % 1026,7 hPa 0,0 l/m 1,8 km/h (1 Bft) W 277 0 min 0,0 UV-I 0 W/m 11,9 C 14,8 C 3,2 km/h (1 Bft)
23.06.2023 23:18 14,8 C 12,8 C 83 % 1026,8 hPa 0,0 l/m 1,4 km/h (1 Bft) W 277 0 min 0,0 UV-I 0 W/m 11,9 C 14,8 C 3,2 km/h (1 Bft)
23.06.2023 23:21 14,7 C 12,2 C 83 % 1026,7 hPa 0,0 l/m 1,0 km/h (0 Bft) W 277 0 min 0,0 UV-I 0 W/m 11,8 C 14,7 C 3,2 km/h (1 Bft)
23.06.2023 23:24 14,4 C 12,2 C 83 % 1026,8 hPa 0,0 l/m 0,0 km/h (0 Bft) W 277 0 min 0,0 UV-I 0 W/m 11,5 C 14,4 C 1,6 km/h (1 Bft)
23.06.2023 23:27 14,3 C 12,2 C 84 % 1026,7 hPa 0,0 l/m 0,0 km/h (0 Bft) W 277 0 min 0,0 UV-I 0 W/m 11,6 C 14,3 C 0,0 km/h (0 Bft)
23.06.2023 23:30 13,9 C 11,7 C 84 % 1026,7 hPa 0,0 l/m 0,0 km/h (0 Bft) W 277 0 min 0,0 UV-I 0 W/m 11,2 C 13,9 C 0,0 km/h (0 Bft)
23.06.2023 23:33 13,8 C 11,7 C 85 % 1026,7 hPa 0,0 l/m 0,1 km/h (0 Bft) W 277 0 min 0,0 UV-I 0 W/m 11,3 C 13,8 C 1,6 km/h (1 Bft)
23.06.2023 23:36 13,9 C 11,7 C 86 % 1026,8 hPa 0,0 l/m 0,7 km/h (0 Bft) W 275 0 min 0,0 UV-I 0 W/m 11,6 C 13,9 C 4,8 km/h (1 Bft)
23.06.2023 23:39 14,0 C 11,7 C 86 % 1026,7 hPa 0,0 l/m 1,4 km/h (1 Bft) W 275 0 min 0,0 UV-I 0 W/m 11,7 C 14,0 C 3,2 km/h (1 Bft)
23.06.2023 23:42 14,1 C 11,7 C 86 % 1026,8 hPa 0,0 l/m 1,8 km/h (1 Bft) W 275 0 min 0,0 UV-I 0 W/m 11,8 C 14,1 C 3,2 km/h (1 Bft)
23.06.2023 23:45 14,0 C 12,2 C 86 % 1026,8 hPa 0,0 l/m 1,7 km/h (1 Bft) W 275 0 min 0,0 UV-I 0 W/m 11,7 C 14,0 C 3,2 km/h (1 Bft)
23.06.2023 23:48 13,9 C 12,2 C 86 % 1026,7 hPa 0,0 l/m 0,4 km/h (0 Bft) W 275 0 min 0,0 UV-I 0 W/m 11,6 C 13,9 C 1,6 km/h (1 Bft)
23.06.2023 23:51 14,1 C 12,2 C 86 % 1026,8 hPa 0,0 l/m 1,0 km/h (0 Bft) W 275 0 min 0,0 UV-I 0 W/m 11,8 C 14,1 C 3,2 km/h (1 Bft)
23.06.2023 23:54 14,0 C 12,2 C 86 % 1026,8 hPa 0,0 l/m 0,0 km/h (0 Bft) W 275 0 min 0,0 UV-I 0 W/m 11,7 C 14,0 C 0,0 km/h (0 Bft)
23.06.2023 23:57 13,9 C 11,7 C 86 % 1026,8 hPa 0,0 l/m 0,0 km/h (0 Bft) W 275 0 min 0,0 UV-I 0 W/m 11,6 C 13,9 C 0,0 km/h (0 Bft)
23.06.2023 23:58 13,9 C 11,7 C 86 % 1026,7 hPa 0,0 l/m 0,0 km/h (0 Bft) N 0 0 min 0,0 UV-I 0 W/m 11,6 C 13,9 C 0,0 km/h (0 Bft)
23.06.2023 23:59 13,8 C 11,7 C 86 % 1026,7 hPa 0,0 l/m 0,0 km/h (0 Bft) N 0 0 min 0,0 UV-I 0 W/m 11,5 C 13,8 C 0,0 km/h (0 Bft)
_ Min-Zeit 06:00 05:58 15:12 00:02 - 21:27 - - - - - 06:00 04:57 21:33
Minimum _ 12,4 C 11,1 C 49 % 1016,7 hPa - 0,0 km/h (0 Bft) - - - - - 10,6 C 8,7 C 0,0 km/h (0 Bft)
_ Max-Zeit 15:45 15:45 00:00 23:03 00:00 01:04 - - 17:44 13:33 14:06 15:45 15:45 00:20
Maximum _ 24,0 C 32,8 C 90 % 1026,8 hPa 0,2 l/m 19,3 km/h
W (3 Bft)
- - 5 min 7,3 UV-I 1023 W/m 14,6 C 23,9 C 35,4 km/h
W-NW (5 Bft)
Durchschnitt _ 17,9 C 19,5 C 73 % 1023,4 hPa #0,2 l/m 6,8 km/h (2 Bft) W - #10:14 h 3,5 UV-I 434 W/m 12,6 C 17,2 C 13,4 km/h (3 Bft)